GFSGBSN_sfc_thetae_000.txt.gz
Theta_e
318 318 319 318 318 318 318 318 318 318 318 318 318 319 319 319 319 320 321 320 319 319 319 319 318 317 321 316 315 333 351 345 335 330 322 327 324 320 316 318 320 324 330 333 334 332 331
317 317 318 318 318 317 317 317 317 317 317 318 318 319 318 319 319 319 319 319 318 318 318 318 317 316 321 310 325 336 337 325 330 326 322 329 321 322 318 318 319 329 331 331 331 328 328
316 316 316 317 316 316 316 316 316 316 316 317 317 317 318 318 318 317 317 317 317 317 316 316 316 322 318 314 332 333 337 323 325 324 322 328 325 320 320 321 329 332 327 330 329 331 326
316 315 315 316 316 315 315 315 315 315 316 316 317 317 317 317 317 316 316 315 319 316 316 317 320 326 315 324 335 327 326 324 326 330 329 329 325 320 319 327 328 324 324 319 327 330 328
315 315 314 315 315 315 314 315 315 316 316 316 316 316 316 316 316 315 314 315 318 318 319 321 328 325 318 330 327 327 326 321 325 328 329 323 323 319 322 318 316 320 313 315 321 330 328
314 314 314 314 314 314 315 315 315 315 315 315 315 315 315 315 315 314 313 315 322 324 325 327 329 321 322 319 324 324 326 323 324 324 321 320 319 315 316 315 307 310 312 315 315 324 327
313 313 313 314 314 314 315 315 315 315 315 315 315 314 314 314 313 312 315 325 324 322 325 320 320 318 318 323 327 322 325 322 323 319 313 318 314 310 312 315 314 313 312 313 317 323 323
313 313 313 313 313 314 314 314 314 314 315 315 314 314 313 313 312 311 318 323 324 324 316 321 321 321 323 323 316 320 326 318 316 311 314 312 310 314 315 314 313 312 311 311 318 322 323
313 312 312 313 314 314 314 314 314 314 314 314 314 313 313 312 311 316 318 317 328 326 316 317 320 319 320 322 315 316 322 319 314 311 311 309 311 316 314 313 312 312 311 311 313 322 325
312 313 313 313 314 314 314 314 314 314 313 313 313 313 312 309 311 316 315 328 325 328 311 312 313 318 320 318 313 320 322 318 314 311 312 313 315 313 312 312 314 310 315 314 314 319 311
313 313 313 313 313 313 314 314 313 313 313 313 313 313 310 309 313 312 321 322 327 323 299 312 315 324 320 315 316 316 324 318 312 313 313 311 311 312 311 312 315 312 319 317 317 318 317
313 312 311 312 313 313 313 313 313 313 312 312 312 312 310 314 315 316 318 323 326 308 297 308 313 313 313 315 315 318 317 320 318 314 315 314 317 316 315 315 315 321 320 319 319 314 307
312 311 311 311 313 313 313 313 313 312 312 311 310 309 308 313 311 320 321 326 310 301 311 307 308 312 312 310 312 313 313 312 310 307 309 312 313 316 317 313 317 317 313 305 303 303 302
312 311 313 311 313 313 313 313 313 312 311 310 308 306 312 314 320 316 314 314 304 306 307 313 310 311 308 311 311 312 311 310 314 313 310 307 305 313 317 315 312 313 311 305 298 299 303
312 312 313 312 313 313 313 313 312 311 311 309 307 316 315 320 318 320 312 306 307 308 313 311 309 306 308 310 310 311 311 311 313 314 309 308 308 315 316 317 317 312 308 313 306 307 303
312 312 312 312 313 313 313 313 312 311 311 309 311 311 312 322 324 314 311 304 310 313 314 312 307 309 305 308 308 309 310 314 312 315 317 312 307 313 314 316 315 315 317 307 308 300 299
312 312 312 312 312 312 313 313 312 311 310 308 310 305 318 324 322 309 306 310 312 314 314 311 310 309 309 308 309 309 310 313 314 313 316 314 311 311 314 312 311 311 311 312 312 308 302
311 312 312 312 312 312 313 313 312 310 308 309 311 302 321 322 309 310 309 312 309 312 314 312 313 312 311 310 309 310 309 313 315 315 310 314 312 308 309 315 317 316 313 313 307 307 308
311 311 312 313 311 313 313 312 311 309 309 309 308 308 323 320 306 310 314 312 313 311 311 311 311 313 313 312 309 311 312 315 315 315 314 315 309 305 307 312 314 312 315 315 314 313 308
310 311 311 312 312 312 312 312 311 310 308 309 311 306 315 317 317 312 311 310 309 311 311 311 312 314 313 312 315 312 313 316 318 317 321 318 312 309 304 308 312 310 312 314 313 308 309
309 310 311 311 313 312 312 312 311 310 308 310 314 310 310 309 311 311 310 310 309 308 312 313 312 311 312 311 312 311 315 316 318 317 318 317 311 313 312 312 312 311 312 312 312 312 309
309 310 310 311 311 312 312 312 311 310 308 311 307 307 313 314 309 308 304 309 306 308 310 309 310 312 314 312 314 311 314 316 315 319 319 320 313 315 310 312 311 309 312 313 313 313 313
308 309 310 310 311 312 312 313 312 311 308 309 310 312 308 302 308 308 308 308 307 310 311 312 313 314 312 314 316 318 318 319 318 318 318 318 315 314 307 312 311 307 312 313 314 315 314
307 308 308 309 310 311 312 312 312 311 309 308 308 308 305 302 308 305 305 305 306 307 309 311 314 315 315 320 319 317 317 317 317 318 319 319 318 315 308 312 301 312 318 317 314 315 316
306 307 308 308 308 310 311 312 312 312 311 309 309 308 306 302 302 301 301 303 305 308 308 309 313 317 319 317 314 312 311 313 314 316 317 320 318 311 307 307 310 311 313 313 312 313 318
306 306 307 307 308 308 310 311 311 311 311 310 307 309 308 302 301 303 301 302 303 305 306 309 316 316 319 315 312 308 303 308 308 312 317 317 320 312 309 303 301 312 317 320 319 308 317
306 306 306 306 307 307 309 310 311 311 311 309 308 308 307 302 306 306 303 301 305 305 303 309 307 314 318 312 308 307 306 311 306 307 310 311 313 308 307 306 308 317 317 319 306 310 319
306 306 306 306 306 307 307 309 311 311 310 309 309 310 303 301 303 303 304 303 305 305 301 306 306 312 312 308 308 308 308 311 309 312 311 311 309 307 309 306 303 319 316 311 321 323 321
306 306 306 306 306 307 307 309 310 310 310 309 306 310 309 303 303 307 307 308 307 306 304 305 304 309 308 307 312 311 308 312 310 305 313 308 313 311 312 312 321 320 320 322 323 323 325

GFSGBSN_sfc_thetae_003.txt.gz
Theta_e
318 318 318 318 319 318 317 318 318 318 318 318 318 318 319 319 319 319 320 320 319 320 320 321 321 319 321 319 319 334 348 346 336 333 325 322 325 326 319 321 320 324 325 327 327 329 328
317 317 317 318 317 317 317 317 317 317 317 317 318 318 318 318 318 319 319 318 318 320 320 320 319 318 323 315 327 333 332 324 324 328 323 325 329 327 322 320 322 326 326 326 327 326 327
316 316 316 317 317 316 316 316 316 316 316 317 317 317 317 318 318 317 317 317 318 321 319 319 319 323 320 318 330 333 333 322 325 325 321 329 329 323 324 319 326 326 322 324 325 327 324
315 315 315 316 316 315 315 315 315 316 316 317 317 317 317 317 317 316 316 315 318 319 318 318 320 327 322 325 333 329 333 322 327 326 326 333 328 324 323 326 326 321 322 317 324 325 327
315 315 315 315 316 315 315 315 315 316 316 316 316 316 316 316 316 315 314 314 321 320 320 322 328 331 323 331 328 328 328 320 322 326 331 328 326 322 322 318 319 319 314 315 319 325 326
314 314 314 314 315 316 315 315 315 315 315 315 315 315 315 315 315 313 313 314 323 322 324 329 328 323 326 319 326 325 326 324 321 324 325 322 320 318 319 316 309 313 314 316 317 322 322
314 314 313 313 314 315 315 315 315 315 315 315 315 315 314 314 313 312 314 328 327 326 329 322 322 319 319 325 327 323 325 322 322 322 316 320 314 312 314 317 317 317 314 315 317 322 321
313 313 313 313 315 314 314 315 315 315 315 315 314 314 314 313 312 311 316 324 325 327 317 322 322 324 324 325 317 320 325 317 317 313 317 316 312 316 317 316 316 313 313 314 318 321 320
313 313 314 314 314 314 314 314 314 314 314 314 314 314 313 312 311 315 322 324 328 329 318 318 321 321 322 323 316 317 320 318 315 313 313 312 315 318 316 314 312 313 311 312 313 318 320
314 314 313 313 313 314 314 314 314 314 314 313 313 313 312 310 310 319 317 329 331 329 312 313 316 319 322 321 315 322 322 318 315 312 313 313 316 314 313 312 313 310 315 314 313 314 310
314 313 313 312 312 313 313 314 313 314 313 313 313 313 311 309 314 312 321 324 327 327 300 314 316 325 322 315 317 317 322 319 313 313 314 311 313 313 312 313 315 313 317 314 314 313 313
314 313 313 313 312 313 313 313 313 313 313 313 312 312 310 314 318 318 322 321 326 310 300 310 316 315 315 315 315 317 316 321 319 314 315 315 320 317 316 317 317 319 317 316 316 313 306
314 313 313 313 313 313 313 313 313 313 312 311 310 309 309 315 310 321 324 321 311 303 313 309 311 314 313 311 313 313 312 313 311 308 309 314 314 317 318 314 317 317 313 306 304 304 305
313 313 313 313 312 312 313 313 313 312 312 311 308 307 314 317 319 319 315 311 304 309 310 313 312 313 309 312 313 312 311 310 315 314 310 308 306 314 318 315 312 313 313 306 300 302 305
313 313 313 313 312 312 312 312 312 312 311 310 307 317 318 320 322 318 312 304 307 311 313 311 311 309 309 311 312 312 311 311 314 316 310 309 309 316 317 318 317 313 309 315 308 309 306
312 312 313 312 312 312 312 312 312 312 311 309 311 313 314 323 325 315 309 302 311 316 316 315 309 310 307 310 309 311 311 315 314 317 319 315 309 315 316 318 318 316 317 308 309 301 301
311 311 312 313 313 312 312 313 312 312 310 309 314 310 319 325 325 311 305 309 313 317 316 313 312 311 310 309 310 310 311 315 317 316 318 316 313 312 315 313 312 312 312 313 313 311 304
311 311 312 313 313 313 313 313 312 310 308 310 312 305 324 327 309 311 308 311 309 315 317 315 316 315 312 312 311 310 310 314 318 318 313 316 313 309 311 316 317 316 313 313 307 308 309
310 310 311 312 313 313 313 312 311 310 309 310 310 311 322 322 305 308 312 311 314 314 314 314 313 316 317 312 310 311 313 317 317 316 315 316 310 306 308 313 315 312 314 315 314 313 310
309 310 311 312 312 313 313 312 311 310 309 309 311 307 310 317 315 313 312 310 312 316 314 315 314 317 315 313 315 312 312 315 317 317 325 319 312 309 304 309 314 310 311 314 313 309 310
309 309 310 311 312 312 313 312 311 310 309 309 314 311 316 309 310 313 316 314 311 311 314 316 314 314 315 312 313 312 314 316 317 316 318 316 311 312 312 312 313 312 311 312 312 313 309
308 309 309 309 310 312 313 313 312 310 308 312 307 308 314 313 314 313 308 312 311 312 312 312 312 314 315 315 315 313 315 316 315 319 317 319 311 314 310 313 312 310 312 313 313 313 313
307 307 309 309 309 310 312 313 312 311 309 309 311 313 310 308 311 310 310 312 312 313 314 315 315 315 314 317 320 321 321 322 321 320 318 318 314 312 308 312 312 307 311 312 314 316 315
306 307 307 308 308 309 310 312 313 312 310 311 309 309 308 305 308 310 310 310 310 311 312 314 315 316 319 323 324 321 320 319 319 319 322 319 319 315 309 311 302 312 317 317 314 316 318
307 306 306 307 308 308 309 311 312 312 311 310 312 305 307 304 305 305 305 307 309 312 311 312 315 320 321 320 315 312 312 313 314 317 318 319 319 312 307 306 311 313 316 315 314 314 319
307 307 306 306 307 307 308 310 311 312 311 311 314 310 306 304 304 305 304 305 307 309 311 312 317 318 321 317 312 307 304 309 308 311 318 318 320 313 311 304 301 312 317 320 320 310 320
307 307 306 306 307 307 308 309 311 312 311 310 313 312 306 302 308 306 305 305 308 308 308 311 311 314 318 312 308 307 306 312 305 307 311 312 312 308 307 306 309 317 320 322 309 313 322
306 307 307 307 306 307 307 308 310 311 311 310 311 313 306 302 304 306 306 305 308 306 305 309 308 312 312 309 308 308 307 308 309 312 312 311 309 307 308 306 303 320 319 313 323 324 324
307 306 306 307 307 307 307 307 309 310 311 309 309 313 312 305 305 309 308 308 307 310 307 308 310 313 313 311 313 313 310 312 312 306 318 310 316 313 314 310 325 324 323 325 325 324 323

GFSGBSN_sfc_thetae_006.txt.gz
Theta_e
317 317 318 318 318 318 317 317 317 318 318 318 318 319 319 319 319 319 320 319 319 319 321 322 322 322 321 317 317 333 352 350 328 324 323 323 319 325 321 320 320 321 323 324 327 327 327
317 317 316 317 317 317 316 316 316 317 317 318 318 318 318 318 319 319 319 318 317 318 322 322 322 319 319 313 326 331 326 324 323 323 324 324 322 328 323 320 319 325 324 323 326 324 327
316 316 316 317 316 316 315 315 316 316 316 317 317 317 317 318 318 318 318 317 316 318 322 321 321 321 321 316 327 330 327 322 324 324 322 324 327 326 324 319 327 325 320 323 323 325 325
315 315 315 315 316 315 315 315 315 316 316 316 317 317 317 317 317 317 316 315 316 320 321 320 321 323 318 329 329 329 328 322 322 325 324 326 332 325 322 324 323 320 320 314 323 325 324
315 314 314 314 315 316 316 315 315 316 316 316 316 316 316 316 316 315 315 315 316 323 323 322 323 323 320 328 321 329 328 319 320 323 324 326 330 321 321 317 317 318 312 315 318 325 322
314 314 314 315 315 315 315 315 315 315 315 315 315 315 315 315 315 314 313 314 322 324 325 327 326 321 327 323 322 326 328 322 320 320 319 324 322 316 316 315 309 312 313 316 316 321 324
314 313 314 314 314 315 315 314 315 315 315 315 315 314 314 314 313 312 313 317 325 325 327 321 320 318 322 328 327 322 325 319 319 317 314 321 314 310 313 317 318 318 315 315 318 324 322
314 315 315 314 314 314 314 314 314 314 315 315 314 314 314 313 312 312 312 313 321 323 316 323 324 324 325 324 317 318 323 315 314 311 316 315 310 315 317 318 316 315 313 313 318 321 321
315 315 314 313 313 314 314 314 314 314 314 314 314 313 313 312 311 314 316 321 327 325 316 318 321 319 322 323 317 316 319 316 312 312 313 311 313 317 316 314 313 314 311 312 314 318 319
315 314 314 313 313 314 314 313 314 314 313 313 313 313 312 310 310 314 315 324 330 328 310 311 315 319 321 321 315 321 321 317 314 312 314 313 317 315 314 312 313 309 314 314 313 313 308
315 314 314 314 314 313 313 313 313 313 313 313 313 312 311 309 310 310 317 321 324 323 297 314 315 324 321 317 317 316 322 317 312 313 313 310 313 313 312 313 315 311 316 313 313 311 310
314 314 314 314 314 313 313 312 313 312 312 312 312 311 310 312 313 317 321 322 320 308 298 310 316 314 314 316 315 317 316 318 318 314 314 313 317 315 314 315 316 316 316 314 313 310 304
314 314 314 314 313 313 312 312 312 312 312 312 310 309 309 312 307 317 316 316 305 301 312 308 310 313 313 312 312 314 312 310 308 306 306 311 312 316 317 313 316 315 312 305 303 303 302
313 314 314 313 313 313 313 313 312 312 312 310 308 307 312 314 315 314 315 307 300 308 308 314 313 313 309 312 310 312 310 307 312 311 308 305 304 313 316 314 312 312 312 305 301 301 304
313 313 313 313 314 313 313 312 312 312 311 310 307 314 314 320 320 317 309 301 304 308 314 311 313 308 309 311 310 310 309 308 311 313 308 306 307 316 316 317 316 312 309 314 308 309 305
312 312 313 313 313 313 313 313 312 312 311 309 309 311 312 318 324 315 305 300 307 312 314 315 309 311 306 308 307 309 308 311 311 315 317 313 308 314 315 317 317 314 316 307 308 302 301
311 311 312 312 313 313 313 313 312 312 310 309 312 312 318 319 323 309 300 304 309 313 315 313 312 311 309 309 309 309 309 312 314 315 317 315 313 311 314 312 310 312 311 312 311 309 303
310 311 311 312 312 313 313 313 312 311 309 309 309 304 320 323 310 308 303 308 308 311 316 316 315 314 312 313 309 309 309 312 316 316 312 316 313 308 310 316 317 315 313 313 307 308 310
309 310 310 312 312 313 313 313 312 310 309 307 306 309 319 321 304 305 309 309 311 310 313 314 312 314 316 314 309 311 311 316 318 316 315 316 311 306 308 312 315 311 313 313 313 312 311
309 309 310 311 311 312 312 312 311 310 310 308 306 304 310 315 313 308 307 308 308 313 313 316 314 315 313 313 315 311 311 315 318 317 327 319 312 311 303 309 313 310 311 312 311 308 308
309 309 309 310 310 311 312 312 311 311 309 308 310 306 313 307 308 309 310 311 310 308 314 316 313 313 313 311 312 311 313 313 316 319 317 316 314 311 311 311 311 311 311 311 310 312 308
308 308 308 309 309 310 311 311 312 311 309 310 307 303 309 307 312 314 307 310 311 311 312 311 311 313 314 312 316 315 316 317 314 316 315 316 312 312 308 311 311 309 311 312 312 311 311
308 308 307 308 308 309 310 311 312 311 309 309 311 307 306 306 309 309 311 312 312 315 314 315 314 314 312 314 320 321 320 320 320 319 316 317 312 312 306 310 310 306 310 311 312 314 313
308 308 308 307 307 308 308 309 311 312 311 308 311 306 303 302 306 308 310 312 312 314 312 315 316 314 320 322 323 322 320 319 320 319 320 319 319 314 307 312 301 311 317 315 313 315 316
308 308 308 307 307 307 308 309 310 312 311 308 311 307 302 299 307 307 309 310 313 314 313 313 317 320 321 318 314 312 312 313 315 318 318 313 318 311 308 305 309 312 315 315 313 315 320
308 308 308 308 307 307 308 308 309 311 312 310 310 313 305 300 304 306 304 307 306 309 311 313 318 321 317 313 310 307 303 308 308 311 319 317 319 314 311 304 301 314 318 321 319 309 320
307 307 308 308 307 307 308 308 309 310 311 310 309 315 307 300 307 305 303 303 309 309 308 313 314 313 316 310 306 305 304 311 306 307 311 311 313 308 307 305 308 317 319 320 306 307 319
307 307 307 307 307 307 308 308 308 309 311 310 308 315 308 302 304 306 306 304 306 309 305 310 309 311 311 308 306 307 306 308 309 314 309 312 309 307 310 306 304 321 318 313 326 327 324
307 307 307 307 307 307 308 308 308 309 311 310 305 313 313 306 305 309 309 310 308 308 307 308 309 316 314 311 311 311 307 310 311 303 315 309 312 312 313 311 319 324 324 327 326 328 324

GFSGBSN_sfc_thetae_009.txt.gz
Theta_e
317 317 318 317 318 318 317 316 317 317 317 317 317 317 318 318 318 319 319 320 319 318 319 322 323 323 318 312 313 327 353 352 333 321 316 316 316 314 310 317 316 317 319 323 325 326 327
316 316 316 316 317 316 316 316 316 317 317 316 317 317 318 318 318 319 319 318 318 318 319 323 323 321 313 306 322 325 325 325 320 315 314 317 317 316 315 318 315 322 319 322 322 325 328
315 315 315 315 315 316 316 315 315 316 316 317 317 317 317 317 318 317 318 317 317 317 318 323 322 320 315 309 322 326 320 316 318 315 313 319 321 315 315 314 323 322 315 319 321 323 325
315 314 314 315 315 315 315 315 315 316 316 316 316 316 316 316 317 317 316 315 316 317 319 323 322 318 308 322 323 321 321 317 318 317 317 320 321 316 315 316 320 315 313 307 318 321 325
315 314 314 316 316 315 315 316 316 315 315 316 316 316 316 316 316 315 314 314 317 320 322 323 317 315 315 330 320 321 322 317 313 313 316 323 318 314 317 308 306 310 304 310 314 319 319
315 315 316 315 315 315 315 315 315 315 315 315 315 315 315 314 314 313 313 314 319 322 324 326 322 313 319 321 318 320 323 321 312 312 313 312 311 309 308 303 299 304 306 312 312 317 318
316 316 316 315 315 314 314 314 314 315 315 315 315 314 314 314 313 312 310 308 312 318 322 318 314 315 317 323 323 317 321 318 311 308 304 308 306 304 307 308 309 313 311 312 317 319 317
316 316 315 315 314 315 314 314 314 314 314 314 314 314 313 313 312 311 308 306 309 313 309 317 321 322 324 324 317 317 321 312 307 304 306 305 305 312 315 313 311 310 313 311 316 320 317
316 315 315 315 315 314 314 314 314 313 314 313 313 313 313 312 311 311 311 312 320 319 308 313 317 317 317 320 315 312 314 312 306 303 305 303 310 316 313 310 309 308 305 309 312 319 320
315 315 315 314 314 314 314 314 313 313 313 313 313 313 312 310 308 307 304 313 317 318 300 306 310 316 317 318 311 319 316 312 307 304 306 307 313 313 310 309 309 300 311 310 310 313 305
315 315 314 314 314 314 313 313 313 313 312 312 313 312 311 310 304 305 310 315 316 313 292 311 311 319 316 312 313 313 317 312 306 306 306 306 309 309 308 309 311 306 311 308 308 303 302
315 315 314 314 314 314 313 313 313 312 312 312 312 311 311 308 306 310 314 312 310 298 295 308 312 310 310 312 313 315 312 313 313 308 309 309 314 311 311 314 313 313 307 307 304 299 293
314 314 314 314 314 314 313 313 313 312 312 312 310 309 308 308 301 308 308 307 298 294 309 306 306 310 308 307 310 311 307 305 302 298 300 307 308 311 312 306 309 307 302 295 293 293 293
314 314 314 313 313 313 313 313 313 312 312 311 308 307 308 310 308 308 306 299 293 303 303 310 309 309 305 308 308 309 305 303 306 304 300 299 298 307 311 305 303 303 302 297 292 293 298
313 313 313 313 313 313 313 313 312 312 311 310 307 309 308 313 313 310 302 294 296 302 308 307 309 306 304 308 308 306 305 304 305 306 299 299 300 310 312 312 309 304 300 305 298 301 296
312 312 312 312 313 313 313 313 312 312 311 309 305 307 309 313 317 309 300 295 301 307 308 308 301 306 304 305 305 303 303 308 307 309 309 303 298 307 311 311 311 307 309 299 297 292 291
312 311 311 312 312 312 313 313 312 312 310 309 306 306 314 316 318 306 295 297 303 307 308 304 303 303 306 307 306 303 303 308 310 309 310 307 301 304 309 304 303 304 302 303 301 299 293
310 311 311 311 311 312 312 312 312 310 309 306 305 299 314 314 304 305 300 300 302 306 309 307 308 306 307 309 307 304 303 307 312 310 305 308 302 301 304 309 312 307 304 304 298 296 299
310 310 310 311 311 311 312 311 311 310 310 303 299 302 312 314 300 302 305 303 304 304 305 306 306 308 311 307 304 309 308 313 313 310 306 308 304 298 302 306 309 306 306 304 305 300 296
310 309 309 309 310 311 311 311 310 310 310 305 301 300 308 309 309 305 303 304 303 309 307 308 308 311 310 306 309 307 310 314 314 312 320 315 303 301 297 303 306 303 307 306 301 296 297
310 309 309 308 308 309 311 310 310 310 310 306 305 303 306 300 302 302 305 306 303 303 309 310 307 309 308 304 306 307 312 315 314 317 315 310 301 303 304 307 307 308 308 306 302 301 300
309 309 309 308 308 308 309 310 310 310 309 307 304 300 301 298 302 305 305 305 307 305 309 310 308 311 310 307 311 308 311 312 313 310 311 310 303 305 301 308 307 305 308 309 309 307 304
308 308 309 309 308 308 308 309 310 309 309 304 306 309 301 298 298 300 303 303 308 308 313 314 312 310 309 313 315 313 313 315 311 312 309 307 306 301 296 303 304 300 305 306 308 310 308
308 308 309 309 308 308 308 308 309 310 310 306 304 305 299 295 301 302 302 304 308 312 309 312 314 312 314 316 318 316 314 314 315 314 315 310 309 303 297 301 293 303 311 312 311 313 313
308 309 309 309 308 308 308 308 308 310 310 307 306 305 301 293 298 300 300 301 305 308 312 313 315 316 316 312 309 307 305 307 311 314 314 313 308 303 298 296 300 307 310 311 309 308 315
308 308 308 308 309 309 308 308 308 309 310 308 306 309 305 296 298 302 298 302 300 301 305 311 317 317 314 307 307 299 301 307 306 307 314 314 312 305 301 296 296 304 314 318 316 304 316
308 308 308 308 308 308 308 308 308 308 309 309 305 309 306 297 301 302 298 296 301 301 303 307 306 310 313 304 300 301 298 308 302 303 306 306 305 301 300 300 303 313 318 318 302 304 317
307 308 308 308 307 308 308 308 308 308 309 309 305 308 306 301 301 303 304 300 299 299 298 304 304 309 308 304 302 301 301 304 303 307 304 306 303 299 302 299 297 318 318 310 313 317 320
307 307 307 307 307 307 308 308 308 308 309 310 303 308 309 304 302 307 307 307 306 305 300 301 302 308 311 306 307 307 303 305 306 301 312 305 309 309 310 309 316 318 314 318 318 316 317

GFSGBSN_sfc_thetae_012.txt.gz
Theta_e
316 315 315 315 316 317 316 316 316 316 316 316 316 316 317 317 317 318 318 318 318 318 318 320 323 324 316 310 309 324 356 355 338 320 315 312 311 311 308 309 319 319 321 326 328 326 324
315 315 315 315 315 315 315 316 315 315 315 315 317 317 317 317 317 318 318 318 318 317 318 319 323 323 310 301 315 320 326 325 320 314 312 312 312 315 310 309 313 323 323 323 327 325 324
314 314 314 315 315 315 315 315 315 315 315 315 316 317 316 317 316 316 317 317 316 316 318 319 323 320 313 305 316 316 318 315 315 313 310 313 314 311 310 308 316 324 318 323 325 326 326
316 316 315 316 315 315 315 314 315 315 316 316 315 316 316 316 316 316 315 315 315 317 319 320 323 317 304 319 319 317 313 314 315 312 312 313 316 312 309 311 313 314 315 308 318 326 327
317 316 316 316 315 315 315 315 315 315 315 315 315 315 315 315 315 314 313 314 316 321 320 324 314 312 308 328 319 318 317 315 312 309 310 318 313 308 308 306 302 306 303 309 313 321 323
317 316 316 315 315 315 315 315 315 315 315 315 315 314 314 314 314 313 312 313 315 321 323 324 322 308 311 315 319 319 317 317 309 308 309 307 305 303 303 301 296 301 305 311 310 316 319
317 315 315 314 315 315 315 315 314 315 314 315 314 314 313 313 312 311 309 304 301 308 318 312 313 312 315 318 322 316 317 312 307 303 299 303 299 298 302 306 306 307 310 309 314 317 319
315 315 315 315 315 315 314 314 314 314 314 314 313 313 313 313 311 311 307 298 301 306 303 313 317 318 320 318 316 317 314 310 303 298 301 300 298 305 311 311 308 305 308 310 313 317 314
315 315 315 315 315 314 314 314 314 314 313 313 313 313 312 311 310 308 305 307 312 306 300 307 312 312 313 317 315 314 311 309 302 299 300 297 302 311 311 309 307 304 309 311 309 315 315
315 315 315 314 314 314 314 314 314 313 313 313 313 313 312 309 301 303 300 304 308 308 295 302 305 311 313 315 309 319 315 310 302 300 301 300 307 308 309 308 308 298 309 314 314 311 304
315 315 314 314 314 314 314 314 313 313 313 313 313 312 310 309 301 301 304 307 307 305 288 307 308 317 312 309 309 310 316 308 303 302 301 300 304 304 305 309 309 304 309 307 314 310 305
314 314 313 313 313 313 313 313 313 313 313 312 312 311 310 304 301 304 308 305 302 295 290 305 310 306 306 308 309 311 310 308 309 303 302 302 310 308 308 311 310 311 305 302 300 297 294
313 312 312 312 313 313 313 313 313 312 312 312 310 309 307 307 296 301 302 300 294 289 304 303 301 305 303 303 306 307 304 301 300 295 293 301 304 308 311 303 307 304 296 291 291 290 290
312 312 312 312 312 313 313 313 313 312 312 310 308 307 306 307 305 304 299 294 288 298 299 305 305 305 301 303 303 306 301 300 302 298 296 294 295 304 308 305 302 300 298 292 288 290 293
312 311 312 312 312 312 312 312 312 311 311 310 307 301 302 304 307 302 297 287 290 296 304 304 302 300 300 304 304 304 300 301 303 300 296 293 296 306 308 309 305 300 297 301 295 296 293
312 311 310 311 312 312 312 312 311 311 311 309 302 298 301 307 309 299 292 290 293 302 304 303 296 300 296 299 300 300 301 303 304 304 301 297 293 302 307 306 306 304 304 296 293 289 288
312 311 310 310 311 311 312 311 311 310 310 308 296 296 304 310 306 296 288 289 296 301 302 301 299 299 299 299 300 300 303 305 307 306 302 300 296 299 302 300 301 301 298 297 297 294 291
311 311 310 311 310 310 312 311 310 309 308 304 294 289 305 309 297 295 291 294 299 299 302 301 303 302 300 302 300 301 301 304 309 308 301 300 295 295 299 305 307 303 301 299 294 292 294
310 311 310 310 310 310 310 311 309 308 308 304 292 293 304 302 291 293 297 301 303 301 300 299 300 303 304 301 298 303 306 310 309 308 304 303 294 293 295 298 301 302 302 300 297 295 294
309 310 310 310 309 309 310 310 309 308 308 305 294 291 298 300 297 296 295 298 300 307 303 303 302 304 302 300 304 302 304 310 310 310 318 310 294 295 294 295 300 298 302 302 300 294 294
309 308 309 310 309 309 309 309 309 308 308 305 295 295 295 291 293 293 294 300 302 301 306 307 303 305 305 299 303 308 309 310 313 314 313 303 295 298 299 304 305 304 305 302 298 298 298
308 308 308 309 309 309 309 309 309 308 308 300 296 295 297 292 292 294 295 297 299 301 304 303 305 309 307 302 307 304 306 303 304 308 303 300 296 299 300 304 305 303 305 306 305 304 304
308 308 309 309 309 309 308 309 309 308 307 297 298 300 295 292 292 293 295 297 298 300 308 310 309 308 306 307 309 309 309 307 308 303 304 299 299 296 295 301 302 299 302 303 306 309 307
308 308 309 309 309 309 308 308 309 309 307 304 300 300 294 289 291 295 295 299 299 302 306 310 310 307 312 313 310 308 306 307 310 308 307 300 298 296 296 295 292 300 309 312 310 310 310
308 308 309 309 309 309 309 309 308 309 309 300 303 300 294 288 293 294 296 298 297 300 303 308 308 310 311 306 301 302 302 303 307 310 309 308 304 298 293 293 296 303 308 310 306 306 313
307 308 308 308 309 309 309 309 308 309 309 303 302 303 298 291 289 298 295 299 294 293 300 304 307 307 307 301 301 294 299 301 303 303 306 307 306 303 300 295 291 301 313 317 313 302 313
307 307 308 308 308 308 308 308 308 308 308 303 301 305 298 294 296 294 292 293 297 295 295 301 300 304 308 298 295 294 296 305 300 298 300 301 300 297 297 295 298 310 314 315 299 301 313
307 307 307 307 307 308 308 308 308 308 308 304 301 306 301 298 299 301 300 297 297 297 293 299 299 303 306 300 297 296 296 299 302 305 302 302 302 299 298 296 295 313 312 307 310 311 315
307 307 307 307 307 308 307 308 308 308 308 307 300 305 306 298 298 304 304 305 304 303 296 294 295 301 305 300 303 301 301 304 303 298 309 303 307 305 304 302 311 315 311 313 314 311 314

GFSGBSN_sfc_thetae_015.txt.gz
Theta_e
315 314 315 315 315 316 315 316 316 316 315 316 316 316 316 316 317 317 317 317 317 317 318 319 320 324 314 305 306 319 351 353 342 321 315 310 310 309 307 307 311 314 319 322 325 325 324
315 315 315 315 315 314 315 315 315 315 315 315 316 317 316 316 316 316 317 317 317 316 317 319 320 323 308 299 311 316 326 335 327 316 313 311 309 312 309 308 311 320 320 322 323 322 322
315 315 315 315 314 314 314 314 315 315 315 315 316 316 316 316 316 315 316 316 315 316 317 319 320 320 311 306 313 313 315 316 315 315 309 312 311 308 308 306 314 322 317 322 323 321 318
316 315 315 314 314 315 314 314 314 314 315 316 316 316 316 315 315 315 315 314 315 316 321 320 323 315 303 315 318 319 312 310 313 310 310 311 313 309 307 309 316 315 314 312 319 323 323
316 316 315 314 314 314 314 314 314 315 315 315 315 315 315 315 314 314 313 313 315 323 321 323 313 310 306 322 319 321 315 312 311 309 309 317 311 306 306 303 303 306 309 308 315 322 323
315 315 315 314 314 314 315 315 315 315 315 315 314 314 314 314 313 312 312 313 314 318 322 322 321 307 309 308 317 317 315 315 310 307 307 305 303 300 300 299 295 306 306 311 312 320 320
314 314 314 314 313 314 314 314 314 314 315 314 314 313 313 313 312 311 308 301 299 303 313 309 307 310 312 316 318 318 315 310 305 302 298 301 298 296 299 303 304 306 308 311 316 318 318
314 314 314 313 314 314 313 314 314 314 314 314 314 313 313 312 311 310 304 297 300 302 297 307 310 313 315 315 312 315 315 307 302 297 298 297 295 302 304 307 305 304 307 309 313 318 318
314 314 314 314 314 314 314 313 313 313 313 313 313 313 312 311 310 305 299 300 306 302 295 302 307 308 309 315 311 312 312 306 301 297 297 294 298 306 307 306 306 301 302 307 308 315 317
314 314 314 314 314 313 313 313 313 313 313 313 313 313 312 309 299 300 300 301 303 303 293 299 302 307 310 313 308 318 314 308 302 299 298 297 303 305 305 305 306 297 306 310 311 310 304
314 314 313 313 313 313 313 313 313 313 313 312 313 312 311 308 300 299 301 302 301 301 286 303 305 313 308 307 308 310 314 307 302 300 298 297 301 301 302 306 308 304 307 306 310 308 305
313 313 312 312 312 312 312 312 313 312 312 312 312 311 310 303 300 302 305 302 299 294 288 302 308 304 303 304 307 308 308 308 308 300 299 300 304 304 303 306 309 309 304 300 299 301 297
313 312 312 311 311 311 312 312 312 311 311 311 310 309 308 306 296 299 299 297 291 288 301 300 299 302 300 299 304 305 302 300 299 295 291 297 300 302 307 301 304 302 296 289 290 293 294
311 312 312 312 312 312 312 312 312 311 310 309 307 307 306 306 305 303 296 291 286 295 297 301 301 302 299 301 300 303 299 298 299 296 293 291 292 299 303 302 300 298 297 290 286 287 293
311 312 312 312 311 311 311 312 311 310 310 308 307 298 299 302 305 300 293 284 288 294 301 301 299 297 296 301 301 301 297 299 302 298 294 291 292 302 304 305 304 298 294 298 291 291 290
311 311 312 311 311 311 311 311 311 310 309 308 301 295 297 305 305 296 289 286 291 299 301 299 294 297 294 296 297 297 297 301 300 301 300 296 290 298 304 304 303 302 301 293 291 287 287
311 311 311 311 310 310 310 310 310 310 309 308 294 291 298 305 300 292 284 286 292 298 299 297 297 296 295 295 296 295 297 302 304 303 303 295 294 295 299 298 299 298 294 293 294 291 289
310 310 311 311 311 309 310 310 310 308 307 304 293 285 300 303 293 289 287 291 297 297 298 297 298 297 296 298 295 295 296 300 307 305 297 298 294 293 296 300 302 299 298 297 294 290 290
309 309 309 310 311 310 309 310 309 308 307 302 293 290 302 298 287 290 295 298 300 297 297 297 296 299 300 297 294 297 300 306 309 306 301 297 290 289 291 293 297 297 298 295 294 293 292
309 308 309 309 309 310 310 310 308 308 307 304 294 289 295 297 293 291 291 295 298 305 301 301 298 299 299 296 298 296 301 306 311 306 317 307 290 295 293 293 297 296 299 299 297 292 292
308 308 308 308 308 309 310 310 309 308 307 304 295 293 293 289 292 291 290 295 298 297 302 304 299 302 301 296 298 299 304 307 312 314 311 301 293 293 299 300 300 300 301 300 298 299 298
308 308 308 308 309 309 309 309 309 308 307 300 294 292 296 293 291 291 292 293 295 297 297 301 299 303 305 299 303 302 304 303 304 306 299 297 293 295 294 299 300 299 301 302 302 299 299
308 307 308 309 309 309 309 309 309 308 304 294 296 296 296 295 290 290 292 294 296 297 300 301 307 304 303 304 308 308 309 308 306 304 301 295 297 291 294 296 298 294 300 300 302 304 304
308 308 308 308 309 309 309 309 309 308 306 301 299 299 295 291 292 292 294 295 296 297 295 301 307 305 307 309 310 307 304 305 307 307 304 298 296 292 295 294 290 299 306 306 307 309 310
308 308 308 308 308 309 309 308 309 308 308 299 300 299 296 291 294 295 295 294 296 296 297 302 307 305 305 302 299 301 301 300 305 309 303 303 295 294 292 292 297 304 308 308 304 304 311
307 308 307 308 308 308 309 307 307 308 308 301 298 302 298 294 292 297 294 294 292 293 294 302 307 306 305 299 299 295 297 300 301 302 307 303 300 298 294 291 291 304 310 315 311 299 312
307 307 307 307 308 308 308 309 308 308 308 300 298 303 299 295 298 297 292 291 295 298 292 299 299 301 307 297 293 294 294 305 300 296 298 300 301 296 295 295 299 308 312 314 301 300 310
307 307 307 307 307 307 307 308 308 307 308 301 298 302 300 297 297 300 300 296 295 296 293 298 295 301 301 298 298 298 298 298 303 304 300 300 299 298 297 293 294 311 311 305 308 310 311
307 307 307 307 307 307 308 307 308 307 308 305 297 303 304 298 296 302 303 304 302 301 297 296 294 300 301 297 300 299 300 301 301 299 309 300 305 303 300 299 307 312 309 312 312 308 311

GFSGBSN_sfc_thetae_018.txt.gz
Theta_e
316 316 316 315 315 315 315 315 315 315 315 315 315 315 315 316 316 316 317 316 317 317 317 318 319 320 313 302 305 313 347 351 342 323 313 309 306 307 306 306 310 311 316 320 325 322 323
316 315 315 315 315 315 315 315 315 315 315 315 314 315 315 315 315 316 316 316 316 316 317 318 319 320 306 299 312 313 335 332 325 314 311 309 309 311 308 306 310 316 318 321 322 321 321
315 315 315 315 315 314 314 314 314 314 314 314 314 314 314 315 315 315 315 315 315 315 317 320 319 319 309 305 312 314 316 321 321 312 309 310 310 309 307 305 309 321 317 320 319 318 319
315 315 315 314 314 314 314 314 314 314 314 315 315 315 315 314 314 315 315 314 314 316 322 321 322 314 300 315 316 318 313 309 314 310 310 310 310 306 305 307 317 315 314 309 317 318 321
315 316 315 314 314 314 314 314 313 314 314 315 314 315 315 315 315 314 313 313 315 321 321 323 312 307 304 322 313 318 313 310 310 307 309 315 309 303 305 306 306 307 305 308 314 320 319
315 315 314 313 313 314 314 314 314 314 314 314 314 314 314 314 313 312 312 313 313 315 321 321 320 307 309 307 312 316 314 312 308 307 307 304 301 298 298 301 300 304 307 307 311 318 319
315 314 314 313 313 313 314 313 313 313 313 314 314 313 313 313 312 311 308 299 299 300 307 305 306 309 309 312 315 315 313 308 304 301 298 299 296 294 299 301 307 309 311 311 313 319 316
314 314 313 313 313 312 312 312 313 313 313 314 313 313 313 312 311 310 302 296 299 299 293 302 304 306 310 312 308 311 313 306 301 296 297 296 294 300 304 304 306 310 308 310 312 317 316
313 313 313 313 313 313 312 312 313 313 313 313 313 312 312 310 309 302 297 295 302 301 292 299 302 304 305 310 306 308 311 304 300 297 295 293 297 303 304 302 302 303 308 306 311 315 317
313 314 314 313 313 313 312 312 313 312 312 312 312 312 311 308 298 299 298 300 300 300 291 297 300 305 308 310 305 315 314 308 299 298 296 295 301 302 302 303 304 297 305 310 310 310 304
314 314 314 313 313 312 312 312 312 312 312 312 311 311 309 308 299 297 298 299 300 298 285 301 301 311 306 304 304 308 313 306 300 299 297 296 298 300 301 303 306 303 306 307 310 308 306
313 313 312 312 312 312 312 312 312 312 311 311 310 310 309 301 300 301 303 300 297 292 286 299 306 301 302 302 304 307 308 308 306 300 297 300 302 302 302 306 308 307 301 299 299 301 296
312 312 312 312 312 312 312 311 311 311 311 310 308 308 307 306 295 298 297 295 289 286 298 297 297 299 298 298 301 302 301 299 298 292 290 295 298 301 304 300 303 300 295 290 291 293 293
312 312 312 312 312 311 311 311 311 310 310 308 306 306 304 305 301 302 294 289 283 293 295 298 299 299 296 298 299 300 299 297 298 297 291 289 290 298 301 300 298 297 296 290 286 287 294
312 312 312 312 312 311 311 311 310 310 309 307 306 297 296 300 305 298 289 282 285 292 299 298 297 295 294 298 298 299 295 297 299 297 294 289 290 299 302 303 303 296 293 297 290 287 289
311 310 311 311 312 311 311 310 310 310 309 307 300 295 294 304 303 293 285 284 287 296 298 297 292 295 291 294 295 294 294 299 299 300 298 295 289 296 300 302 301 299 299 293 289 286 285
310 310 310 310 311 311 311 310 310 310 308 307 293 288 294 303 297 290 281 283 289 296 297 296 295 294 293 293 294 293 295 300 302 300 299 294 291 292 297 296 296 295 293 292 292 290 287
310 310 310 310 310 310 311 311 310 308 307 303 294 283 297 300 290 286 285 288 295 294 296 295 295 294 293 295 293 294 295 299 304 301 296 296 294 291 293 297 300 299 296 295 293 288 289
311 309 309 309 310 309 309 310 309 308 307 301 292 291 298 297 286 287 292 296 297 295 294 294 294 296 295 293 290 294 297 303 304 301 298 296 289 289 289 292 295 295 296 293 291 291 289
309 310 309 308 309 309 309 310 309 308 308 302 294 287 293 293 290 288 288 291 295 304 298 298 296 296 294 292 293 293 296 305 306 306 319 310 290 292 291 293 295 294 297 296 294 290 290
309 309 309 308 308 309 310 310 309 308 307 303 296 290 293 288 290 291 288 291 295 296 299 299 297 296 295 291 293 293 297 300 306 314 307 297 292 292 298 297 297 297 298 297 295 295 294
309 309 308 308 308 309 309 310 309 308 307 299 293 292 294 292 292 289 290 290 294 295 296 295 296 301 299 295 298 295 298 299 301 304 301 296 292 292 296 298 298 297 298 299 299 298 297
309 308 308 308 308 309 309 310 309 308 303 292 294 297 295 292 290 286 288 292 294 296 298 299 299 298 301 303 304 304 303 307 304 301 300 294 292 289 292 294 294 291 298 298 299 300 301
308 308 308 308 309 308 309 309 309 309 304 296 296 297 292 287 292 292 293 294 293 295 294 297 298 295 304 303 303 302 301 304 307 305 303 300 292 290 290 291 286 297 304 303 302 306 306
308 308 308 308 308 308 308 308 308 308 308 298 297 293 293 289 293 293 294 294 294 295 295 296 299 306 304 299 297 296 297 299 305 309 304 301 293 290 291 287 293 303 307 308 304 304 310
308 307 308 308 308 307 307 308 307 308 308 300 296 297 295 287 288 294 293 294 291 292 293 296 303 302 306 296 296 292 293 297 299 304 305 306 300 294 290 288 289 299 308 314 312 299 310
308 308 308 308 308 307 308 308 308 307 308 301 296 303 298 291 294 295 291 291 295 294 292 296 297 297 306 296 293 291 293 301 298 299 301 301 300 296 294 293 297 307 310 313 300 301 310
308 308 308 308 307 307 307 308 308 307 308 303 295 301 298 293 294 297 298 294 294 294 291 296 296 299 300 297 296 295 294 298 300 304 302 301 299 298 297 294 293 310 309 303 307 310 312
308 308 308 308 307 307 307 307 307 307 307 305 294 299 305 296 295 299 299 301 301 300 295 296 298 298 301 297 298 297 298 300 299 298 308 300 305 302 301 298 307 310 308 312 312 310 312

GFSGBSN_sfc_thetae_021.txt.gz
Theta_e
316 316 316 315 315 315 315 315 315 315 315 315 315 315 315 316 316 316 316 317 317 317 317 318 319 320 317 309 311 318 346 351 343 326 317 315 312 313 313 316 315 316 321 325 326 328 331
316 315 315 315 315 314 314 315 315 315 315 315 315 315 315 315 315 316 317 317 316 316 317 318 320 320 313 304 316 321 333 335 331 321 316 316 314 317 316 314 316 320 323 326 327 328 330
316 315 315 314 314 314 314 314 314 314 314 314 314 314 315 315 315 315 316 316 315 315 317 320 322 319 310 309 317 317 322 326 327 320 315 316 317 317 316 313 319 325 321 325 325 327 326
315 315 315 315 314 314 314 314 313 313 313 313 314 314 315 315 315 315 315 314 314 316 320 323 322 320 309 317 320 320 321 317 323 319 319 318 317 314 314 319 324 321 321 316 323 325 327
315 315 315 314 313 313 313 313 313 313 313 314 314 313 314 315 315 314 313 313 316 320 321 324 318 313 310 326 319 322 322 315 320 318 318 316 317 311 312 317 317 317 312 315 319 326 325
315 315 314 314 314 313 313 313 312 313 314 314 314 314 313 314 313 312 311 313 314 318 323 323 322 313 317 314 317 320 321 317 314 314 313 311 311 307 309 313 305 312 313 316 317 322 324
314 314 313 314 313 313 313 313 312 312 313 313 313 313 313 312 311 310 310 306 308 308 311 312 312 313 313 316 318 318 318 313 313 312 306 308 304 302 307 314 316 317 316 315 320 324 321
314 313 313 313 313 312 312 312 312 312 312 312 313 312 312 311 310 310 305 302 302 302 297 303 304 307 312 315 309 315 318 312 309 305 305 304 301 306 309 312 314 317 315 315 319 323 322
314 313 313 313 312 312 312 312 312 313 313 313 312 311 311 309 309 306 301 303 305 305 297 301 304 304 307 309 307 309 316 312 309 304 303 302 304 307 307 307 307 315 315 316 316 320 323
314 314 314 313 313 313 312 312 312 312 312 312 312 311 310 307 303 302 302 306 306 305 298 303 304 309 310 311 306 313 317 314 307 306 303 303 306 305 305 306 309 307 317 318 317 316 310
314 314 314 313 313 313 313 312 311 311 311 311 311 310 309 307 303 301 303 306 306 305 290 304 306 315 312 309 309 309 318 314 308 306 305 304 302 303 303 306 310 309 315 316 318 316 314
313 313 313 313 313 313 312 311 311 311 311 311 310 309 309 305 304 305 307 305 305 299 290 301 309 307 306 308 308 311 312 315 313 308 305 307 307 307 307 310 311 312 311 311 315 314 305
313 313 313 312 312 313 312 311 311 311 310 310 308 307 307 306 301 305 305 301 295 291 302 300 303 304 304 305 306 308 307 306 305 301 301 305 305 308 309 306 311 311 309 302 301 302 301
313 312 312 313 312 312 312 311 311 311 310 309 306 306 306 307 308 307 302 296 289 295 298 303 303 303 301 304 305 305 305 303 309 308 303 299 297 304 308 307 306 307 308 302 296 297 301
312 312 312 312 311 312 312 312 311 310 310 308 306 304 302 305 307 305 295 288 291 295 302 300 302 300 300 302 303 304 304 303 307 309 302 300 300 304 307 309 311 307 303 311 304 301 302
312 311 311 311 311 311 311 311 311 310 309 307 302 298 298 308 308 300 292 289 292 300 303 303 298 301 298 300 300 302 302 306 306 309 312 304 298 304 305 309 309 308 310 301 303 298 295
313 312 311 311 311 311 310 310 311 310 308 307 300 293 301 308 303 296 289 289 293 298 302 300 300 299 300 299 300 299 300 304 306 306 311 308 303 301 304 303 303 304 303 304 307 304 300
312 312 311 310 310 310 309 310 310 308 307 303 297 288 304 306 296 293 290 293 295 297 299 299 300 301 300 300 299 299 299 303 307 306 303 307 305 300 301 307 307 307 305 306 302 301 302
311 311 310 311 310 309 309 310 309 308 307 301 293 293 303 302 292 293 297 297 300 297 298 297 297 300 301 299 297 299 301 306 307 306 306 304 302 298 300 304 305 303 305 307 307 306 305
310 310 310 310 309 308 309 310 309 308 307 303 294 289 299 299 297 294 293 295 296 303 302 300 299 301 299 297 300 298 300 305 307 306 319 311 304 302 297 301 305 302 302 304 304 301 302
310 310 309 309 309 308 308 310 309 308 307 302 295 293 296 293 295 296 295 294 293 294 302 302 302 299 299 297 299 298 302 303 306 312 312 312 305 305 306 307 305 304 302 303 302 305 302
309 309 309 309 309 308 308 309 309 308 306 299 293 293 294 293 295 294 294 293 294 297 298 299 300 303 304 301 303 300 303 304 304 309 308 308 304 305 304 307 305 302 304 304 304 305 305
308 308 309 308 309 309 309 309 309 308 304 298 298 298 294 291 291 291 292 293 294 296 299 300 299 298 299 304 308 309 309 308 309 309 312 310 305 301 299 305 302 298 304 305 306 308 307
308 308 308 308 308 308 308 308 309 308 306 302 298 296 291 286 290 291 294 295 294 295 294 297 298 297 302 308 308 310 307 308 310 311 314 310 307 303 301 300 292 304 310 309 307 308 310
308 308 309 308 308 308 308 308 308 308 307 304 301 297 292 286 290 290 292 294 296 297 296 296 299 303 306 303 303 304 304 305 307 311 312 315 308 304 301 299 302 305 311 306 304 307 313
308 309 309 309 308 308 308 308 307 308 308 305 302 301 295 287 286 291 292 293 292 293 295 297 303 305 308 306 303 299 298 303 303 307 312 311 312 308 301 297 295 306 312 316 316 304 317
308 308 308 309 309 308 308 308 308 308 307 306 302 302 297 289 292 294 290 292 296 295 293 296 298 300 309 305 300 299 300 307 302 303 306 309 309 303 302 299 304 312 315 316 304 308 317
308 308 308 308 308 308 308 308 307 307 307 304 303 303 299 293 293 295 296 292 295 295 290 296 296 301 303 302 303 303 302 307 306 309 308 307 305 304 305 300 298 315 314 310 315 319 319
307 307 308 307 308 307 307 307 306 306 307 306 300 301 304 295 293 299 299 300 300 299 295 298 298 296 302 301 303 303 305 308 308 303 312 305 311 305 305 305 314 314 315 317 318 319 321

GFSGBSN_sfc_thetae_024.txt.gz
Theta_e
317 316 316 315 315 316 315 315 315 315 315 315 315 315 316 316 316 317 317 318 317 317 318 318 319 321 322 315 315 324 348 349 335 326 320 318 316 316 314 320 325 324 323 325 326 330 331
317 316 315 315 315 315 315 314 315 315 315 315 315 315 316 316 316 317 317 317 317 316 317 318 320 321 319 308 321 323 330 332 330 324 320 319 317 318 317 319 322 325 323 325 326 329 332
316 316 315 314 314 314 314 314 314 314 314 314 314 314 315 315 315 316 317 316 315 315 317 319 321 321 315 313 321 323 323 324 327 324 319 320 321 317 319 318 323 323 320 325 326 330 330
316 315 315 314 314 313 313 313 313 313 313 313 314 314 314 314 314 315 315 314 314 317 320 323 324 322 313 322 324 322 324 323 325 327 323 322 322 319 319 323 322 320 320 317 326 330 331
316 316 315 314 315 313 313 313 313 313 313 314 314 313 314 314 314 313 312 312 315 323 322 324 324 321 313 325 323 327 327 321 323 323 323 321 321 316 318 317 316 319 313 315 322 329 328
315 315 314 314 314 314 314 313 313 313 314 314 314 314 313 313 312 311 311 313 319 321 326 327 325 317 320 317 323 323 327 322 320 318 317 316 315 312 313 314 309 313 314 316 318 325 327
315 315 314 314 314 313 313 313 312 312 312 313 314 313 313 312 311 310 311 314 315 316 322 316 317 317 316 321 323 322 324 319 319 315 309 312 309 306 311 315 318 318 316 315 320 327 325
315 314 314 314 313 313 313 313 312 312 312 312 313 312 312 311 310 309 310 307 306 305 302 311 310 312 317 319 313 319 324 314 314 308 311 308 305 312 315 315 315 316 315 315 321 326 325
314 314 314 314 314 314 314 314 313 312 312 312 312 312 311 310 309 310 308 309 311 309 303 308 310 309 311 313 311 314 320 317 312 309 308 306 308 313 312 312 313 316 315 316 317 324 326
315 315 315 314 314 314 314 314 313 312 312 312 312 311 310 308 307 308 308 312 312 310 301 307 308 311 313 313 308 317 321 317 313 309 309 308 311 309 309 309 313 312 319 318 318 319 313
315 315 314 315 314 314 314 313 313 312 312 312 311 311 309 307 307 306 308 312 311 309 294 308 309 319 316 313 313 312 319 317 310 310 311 306 307 307 306 308 314 313 318 318 319 318 317
314 314 314 314 313 313 313 313 312 312 311 311 311 310 308 309 310 310 311 311 310 301 293 304 311 310 310 312 312 314 312 318 317 311 311 310 313 310 309 311 312 316 315 316 317 316 309
314 314 313 313 312 312 312 312 312 311 311 310 309 307 307 309 305 311 311 305 298 295 305 303 306 310 308 308 310 311 308 308 307 304 305 308 308 310 311 308 311 313 312 306 305 306 306
315 314 314 313 313 312 312 312 312 311 311 310 307 305 309 309 313 312 307 298 292 299 302 307 307 308 305 308 308 309 308 305 310 309 306 303 300 308 310 309 308 309 311 306 301 302 306
316 314 314 313 312 312 312 312 311 311 310 309 305 307 307 312 312 311 301 292 295 299 304 303 306 304 305 307 306 308 308 306 308 311 305 304 303 310 311 311 311 309 308 315 310 311 307
315 314 314 313 312 312 311 311 310 311 310 307 304 304 304 311 314 308 297 292 298 302 303 306 301 305 303 306 304 306 307 309 308 311 314 310 303 309 310 312 311 311 315 307 310 303 301
313 313 312 312 312 311 311 311 310 310 309 307 304 298 309 314 312 303 294 295 298 302 303 302 302 303 304 304 305 305 306 309 311 310 314 312 308 307 310 307 306 307 308 311 311 309 303
312 312 312 312 311 311 310 310 310 309 307 306 301 294 310 312 299 300 296 299 297 299 302 301 303 304 303 304 304 304 304 307 311 313 308 312 309 303 305 310 311 311 309 311 306 307 309
312 312 312 311 311 310 310 310 310 309 307 304 297 297 307 306 292 295 299 298 300 299 300 299 299 302 304 302 301 304 306 310 309 310 311 313 308 302 303 306 309 307 310 311 312 312 310
311 311 311 311 310 310 310 310 309 308 308 304 298 292 300 304 303 298 297 298 298 302 302 302 301 302 301 301 305 303 304 307 309 309 321 313 310 306 301 304 306 303 305 309 309 307 307
310 310 310 310 310 310 309 310 309 308 308 304 299 295 299 293 297 298 300 299 296 297 303 305 303 300 300 298 300 301 304 306 309 312 310 309 306 309 309 309 309 307 305 305 305 307 305
309 309 309 309 309 309 309 309 309 308 307 300 294 294 298 295 296 294 293 294 296 298 300 301 302 303 301 300 302 300 303 305 305 309 309 313 308 311 307 309 309 306 308 308 307 307 307
309 309 309 309 309 309 309 309 309 308 305 299 301 301 296 293 291 290 292 294 294 299 301 302 303 302 303 305 309 311 312 312 309 308 309 309 308 308 304 309 309 304 308 309 309 310 308
309 309 309 309 309 309 309 308 308 308 307 303 302 300 291 290 292 290 293 294 294 295 294 299 301 299 305 310 309 310 312 312 312 312 314 312 312 309 305 308 298 309 315 314 311 312 312
309 308 309 309 309 309 309 309 308 308 308 303 304 297 293 288 293 291 291 292 294 296 296 297 299 303 307 305 302 303 305 307 308 310 310 313 314 307 304 304 307 309 312 311 310 310 315
308 308 308 308 308 309 309 309 308 308 308 305 304 304 296 290 291 294 292 294 292 293 295 296 303 307 306 302 303 299 297 302 301 304 312 313 315 311 309 302 299 312 317 321 320 307 316
307 308 308 308 309 309 309 309 308 308 308 305 303 307 298 290 295 296 293 293 297 295 295 298 299 301 308 305 301 299 300 306 300 302 306 309 311 307 306 305 308 316 318 320 306 309 323
307 307 307 308 308 308 308 308 308 308 307 306 303 306 299 293 294 300 299 295 295 294 291 298 296 301 302 301 302 301 304 305 304 309 309 308 306 306 308 305 303 317 318 312 320 328 326
307 307 307 308 308 308 307 307 307 306 305 306 299 307 309 296 295 303 303 303 301 300 296 297 297 299 298 299 302 303 306 310 309 304 316 307 312 309 312 311 318 319 319 322 323 325 330

GFSGBSN_sfc_thetae_027.txt.gz
Theta_e
317 317 316 316 316 315 315 315 315 315 315 315 315 315 315 315 316 316 317 318 317 317 317 318 319 321 323 316 316 331 350 348 337 333 331 325 323 322 321 321 324 327 326 325 327 328 329
317 317 316 315 315 315 315 314 315 315 314 315 315 315 315 315 316 316 316 316 316 316 317 318 319 320 319 310 324 329 328 335 328 326 323 322 320 323 320 320 322 328 327 325 326 327 329
317 316 316 316 316 315 314 314 314 314 314 314 315 315 316 315 315 314 315 315 314 315 317 320 321 323 316 316 323 325 328 327 327 326 321 322 322 319 321 318 324 327 321 324 325 327 326
316 316 315 315 315 315 314 314 313 313 313 313 314 315 315 315 315 315 314 313 313 316 321 324 323 325 314 325 327 323 324 322 326 328 324 324 323 321 320 322 323 321 322 317 324 325 329
316 315 315 315 315 315 314 314 313 313 314 314 314 314 314 314 314 313 312 312 314 320 325 324 327 324 316 325 321 323 324 320 323 324 326 324 321 317 319 315 316 319 314 316 319 326 328
317 316 316 315 315 315 315 314 314 314 314 314 314 313 313 313 313 311 311 312 320 322 326 329 328 320 320 318 324 326 328 325 320 320 319 318 316 313 315 314 309 314 315 317 319 322 327
316 315 315 315 314 315 315 315 314 314 314 313 313 313 313 312 311 310 311 318 317 319 323 319 320 317 318 323 325 322 326 322 321 317 311 314 309 307 313 316 318 319 318 315 321 323 324
316 315 314 314 315 315 315 315 314 314 313 313 313 312 312 311 310 309 313 312 308 309 304 312 314 316 322 323 316 320 325 315 315 310 313 311 306 313 317 317 317 317 317 317 320 323 323
315 315 315 315 316 315 315 314 314 314 313 313 312 312 311 310 309 313 310 313 315 313 304 309 314 313 315 317 314 316 322 316 313 311 310 308 309 313 315 314 314 315 316 317 316 324 325
316 315 315 316 315 315 314 314 313 313 313 312 312 312 311 308 308 311 310 316 315 313 301 307 310 313 315 315 310 319 322 317 313 310 311 310 313 311 312 312 315 312 319 318 317 316 314
316 315 315 315 315 314 314 313 313 313 312 312 312 311 310 307 308 308 311 314 314 312 295 312 312 320 317 312 315 314 321 319 312 311 312 308 309 310 309 312 316 314 319 318 318 316 317
317 316 315 315 315 314 313 313 312 312 312 311 311 311 309 309 311 313 314 314 311 301 295 308 313 311 311 312 314 316 315 320 318 313 313 312 315 313 312 315 316 318 317 318 318 316 308
316 316 316 315 315 314 313 312 312 312 311 311 309 308 308 310 306 314 313 308 298 295 309 307 308 311 311 311 312 313 310 310 309 305 306 310 311 313 314 310 315 314 313 306 305 306 306
316 316 316 315 314 314 313 312 312 311 311 310 308 306 310 312 315 315 309 300 293 302 304 311 311 311 308 311 311 312 309 307 312 311 308 305 302 310 312 311 310 311 312 306 301 303 306
316 316 316 315 315 314 313 312 311 311 310 309 306 310 309 312 315 313 304 293 296 302 308 307 309 307 308 310 310 311 310 308 310 312 307 306 306 313 313 313 312 310 308 315 310 311 308
315 314 314 314 313 313 313 312 311 311 310 309 306 307 308 314 315 310 300 294 301 305 308 307 303 308 305 308 307 308 309 312 310 313 315 311 306 312 312 313 312 310 315 307 311 304 303
313 313 313 313 313 313 312 312 311 311 310 308 306 301 312 316 314 305 296 298 301 305 305 303 303 305 307 307 309 308 308 312 313 313 314 312 310 309 312 309 307 307 308 311 311 310 305
312 313 312 312 312 312 311 311 311 310 308 306 304 297 312 314 300 301 298 301 302 304 307 304 304 305 306 308 307 309 308 311 315 314 310 313 310 306 308 313 314 311 309 310 310 307 310
312 312 312 312 312 311 311 311 310 309 309 306 300 302 309 308 293 295 300 301 303 302 303 303 301 304 306 305 305 308 309 314 313 312 311 313 308 303 306 310 313 309 310 310 311 313 311
310 311 311 311 311 311 311 311 310 309 308 305 300 296 302 304 303 297 297 298 298 305 302 303 303 304 302 302 307 305 307 311 313 312 325 315 310 307 303 307 310 307 308 309 309 307 309
310 310 310 310 310 310 309 310 310 309 308 303 300 297 298 295 297 297 299 299 297 297 302 305 302 302 301 299 301 302 306 309 311 315 312 312 307 309 309 311 311 309 307 307 307 309 307
310 310 310 310 310 309 309 309 309 308 307 299 295 297 300 297 298 296 295 295 293 295 298 298 299 302 304 301 302 301 305 307 308 311 309 312 307 311 308 311 310 309 308 308 308 308 309
309 310 310 310 310 310 309 310 309 308 306 300 304 304 298 295 295 293 292 295 294 297 299 301 299 300 301 304 307 310 311 310 310 310 309 310 308 307 303 309 309 304 309 310 310 310 309
309 309 309 309 310 310 310 310 309 309 307 306 301 299 295 291 293 293 293 293 294 296 295 297 298 296 302 307 309 311 311 311 310 309 312 309 310 309 305 308 298 310 315 314 312 313 314
309 308 308 309 309 309 309 310 310 310 308 305 304 299 294 291 292 294 294 294 294 297 295 295 297 301 304 304 303 302 302 303 307 309 310 312 310 305 302 303 308 310 313 312 311 311 316
308 308 308 308 309 309 309 309 310 309 309 309 308 305 296 290 292 295 294 294 292 293 296 297 301 304 305 300 298 296 294 300 299 304 312 312 314 309 306 301 299 309 318 322 320 308 319
308 308 308 308 308 309 309 309 309 309 309 308 307 309 298 290 297 297 293 292 297 295 295 297 300 300 304 297 295 296 296 303 298 298 301 305 307 304 307 304 308 319 321 321 307 311 326
308 308 308 308 308 308 309 309 308 308 308 307 304 308 298 293 294 300 300 297 296 296 292 297 298 299 300 298 299 298 299 301 301 306 305 304 304 303 306 304 300 321 320 314 322 329 331
309 309 308 308 308 308 308 307 307 307 308 308 302 310 308 297 295 304 303 303 304 303 299 299 298 296 299 298 299 299 301 304 305 299 311 304 309 306 309 309 324 325 325 326 326 325 330

GFSGBSN_sfc_thetae_030.txt.gz
Theta_e
318 317 317 316 317 317 316 315 315 315 315 315 315 315 316 316 316 316 317 317 317 316 316 318 319 321 321 314 315 326 352 353 338 329 324 324 323 324 320 324 325 325 325 329 327 326 327
317 317 316 316 316 316 315 315 315 315 314 314 314 315 316 316 316 316 316 316 316 316 316 318 320 320 317 306 323 328 327 330 326 325 324 327 324 325 322 322 321 322 327 326 326 325 328
317 316 316 316 316 316 315 315 315 314 314 314 315 315 315 315 315 315 316 315 315 315 316 319 323 321 314 312 325 329 326 327 327 325 321 324 326 321 323 318 322 321 321 324 324 324 325
318 316 316 316 316 316 315 314 315 315 315 315 315 315 315 315 315 315 314 313 314 315 318 323 325 321 311 321 325 323 324 324 327 327 324 324 323 319 318 321 319 316 319 317 322 323 325
318 318 317 316 316 316 315 315 314 315 315 315 314 314 314 314 314 313 312 312 315 318 322 325 324 323 314 329 321 324 323 319 321 322 325 324 321 315 316 312 311 314 311 315 317 324 324
318 318 317 316 316 316 316 316 315 315 315 315 314 314 314 313 313 312 311 313 319 320 324 328 326 320 323 318 323 323 323 321 317 319 318 318 316 311 311 310 303 308 312 315 316 322 322
317 317 316 315 315 316 316 315 315 315 314 314 314 313 313 312 312 310 309 315 316 314 320 319 318 314 317 324 326 323 322 319 319 317 309 314 309 306 309 312 314 314 315 314 319 320 320
317 317 317 316 316 316 315 315 314 314 314 314 313 313 313 312 311 310 311 312 312 311 303 310 312 318 323 324 317 320 324 317 315 309 312 310 305 310 313 314 313 313 313 315 320 323 322
318 317 317 316 316 316 315 314 314 313 313 313 313 312 312 311 310 312 311 310 318 315 303 306 310 310 314 322 317 317 320 317 312 309 310 306 309 312 311 311 312 312 312 315 316 321 322
318 317 317 316 316 316 315 314 313 313 313 313 312 312 311 309 309 309 309 316 315 314 298 304 310 311 313 315 311 321 322 318 312 309 311 309 312 310 309 309 312 309 316 316 317 316 311
318 317 317 317 316 316 315 315 313 313 313 312 312 312 310 309 306 307 313 315 314 311 292 312 312 320 316 310 313 313 320 318 310 310 311 308 309 308 307 308 314 312 317 316 316 314 316
317 317 317 316 317 316 315 314 313 312 312 312 311 311 310 309 309 311 314 314 311 298 293 308 313 311 310 311 311 316 313 317 318 311 312 311 315 312 311 312 313 316 315 315 315 313 307
317 317 317 316 316 316 315 314 313 313 312 311 310 309 308 309 304 312 313 308 296 293 309 307 309 312 310 308 308 313 309 308 307 305 305 309 310 313 313 309 312 312 310 305 304 305 304
316 316 316 316 315 315 314 314 313 312 312 310 308 306 309 311 314 314 310 300 291 301 301 312 312 311 307 310 309 309 310 306 310 310 306 303 302 309 313 309 308 309 309 306 300 302 305
315 315 315 315 314 313 313 313 312 312 311 309 307 310 309 311 314 313 303 292 295 301 307 307 309 307 308 310 311 309 309 308 309 311 306 305 304 313 313 313 311 308 306 312 307 309 306
314 314 314 314 313 313 313 313 312 312 311 309 305 306 309 315 315 310 299 293 299 304 306 307 302 307 305 308 308 309 309 312 309 312 314 310 304 311 313 314 312 310 313 304 306 301 301
313 313 313 313 313 313 313 313 312 311 310 308 305 302 310 315 313 305 295 296 300 304 305 301 300 300 303 306 309 308 308 312 314 312 313 311 309 308 313 309 307 307 305 307 308 308 303
313 312 312 312 312 312 312 312 311 310 308 306 303 296 311 314 300 301 296 300 301 303 306 304 305 303 301 303 305 307 308 311 316 315 309 312 309 305 307 314 314 311 308 307 302 305 308
312 313 313 312 312 311 312 311 311 309 309 305 298 300 309 308 294 295 299 299 301 301 302 303 302 304 305 302 301 305 308 314 315 314 311 314 307 303 304 309 313 309 309 308 307 307 307
312 312 312 312 312 312 311 311 310 309 309 304 298 293 300 303 302 297 296 297 297 302 301 304 303 305 303 302 304 303 305 310 314 314 327 316 309 306 302 306 309 308 309 309 307 303 305
311 311 311 311 311 311 311 310 309 309 308 304 299 295 299 293 295 298 297 296 294 296 302 304 301 302 299 298 300 300 304 306 310 317 313 312 306 308 309 308 310 309 309 308 307 308 305
310 310 310 310 310 310 311 311 310 309 308 302 293 294 299 296 297 294 293 293 293 295 295 294 297 300 301 299 301 296 301 305 306 311 310 313 307 308 306 308 308 307 310 310 310 309 309
310 310 309 309 309 309 310 310 310 309 306 301 303 302 298 294 294 293 293 294 293 295 297 299 297 296 296 298 302 303 304 305 307 309 311 310 307 307 303 308 307 303 309 310 310 311 310
310 309 309 309 309 309 310 310 310 310 308 307 304 302 293 287 292 292 294 294 294 295 293 298 298 295 298 303 304 307 307 307 308 308 309 312 309 308 304 307 298 309 314 313 312 312 312
310 309 309 309 309 309 309 310 310 310 310 306 307 300 293 288 293 293 294 293 295 297 295 296 298 300 302 300 296 295 300 302 304 307 308 312 311 304 302 301 305 308 312 312 310 312 316
310 310 309 309 309 309 309 310 310 310 310 309 308 308 297 290 290 295 293 295 291 293 295 298 303 305 302 297 293 289 292 297 298 302 309 309 314 307 305 299 297 309 313 318 317 308 319
310 310 309 309 309 309 309 310 310 310 310 308 307 310 299 289 295 297 293 293 296 295 292 296 299 301 303 294 290 288 290 301 296 299 303 303 306 302 303 301 305 313 316 321 308 313 327
310 310 309 309 309 309 309 309 308 308 309 308 306 310 302 292 295 299 299 296 296 296 290 296 295 299 298 294 293 293 294 299 299 303 302 302 302 301 304 303 300 319 320 313 324 330 330
310 310 309 308 308 308 308 308 307 307 308 308 303 312 308 297 296 302 303 304 303 302 297 298 296 295 299 297 299 299 297 300 302 296 307 300 305 304 308 308 322 321 327 329 328 327 329

GFSGBSN_sfc_thetae_033.txt.gz
Theta_e
318 317 317 317 316 318 317 316 316 316 315 315 315 315 315 315 315 316 317 317 317 317 316 317 318 320 317 311 310 321 351 355 345 332 322 317 313 315 314 318 324 320 320 323 324 324 323
318 318 317 316 317 317 316 316 315 316 316 315 316 316 316 316 316 317 317 316 316 316 316 317 319 320 314 300 314 318 330 334 329 323 318 318 316 319 317 317 320 326 323 324 325 324 323
318 318 317 317 316 316 316 316 315 315 315 315 316 316 315 315 316 316 316 315 315 315 315 318 320 320 312 305 317 323 324 323 325 321 316 319 321 319 317 314 319 318 319 323 322 320 321
319 319 318 317 317 317 316 315 315 315 315 315 315 315 315 315 315 315 314 314 314 315 317 319 323 318 306 317 317 316 316 320 325 321 319 320 321 316 312 313 312 310 308 304 319 318 322
318 318 318 317 317 317 317 316 316 316 315 315 315 314 314 314 314 313 312 313 315 318 319 324 319 314 310 327 316 317 316 315 318 320 319 323 316 310 310 305 301 303 300 303 314 320 321
318 318 318 317 317 317 316 316 315 315 315 314 314 314 313 313 313 311 311 313 316 320 320 325 323 313 319 313 318 319 319 318 315 315 312 312 309 305 304 300 295 299 300 304 311 316 320
319 318 318 317 317 316 316 316 315 315 314 314 314 313 313 312 311 310 308 305 306 306 314 315 313 313 312 318 322 319 320 315 312 307 302 307 302 300 302 304 305 306 305 305 313 320 318
319 318 318 318 317 317 316 316 315 315 314 314 313 313 312 312 311 309 308 305 306 306 300 307 307 310 318 319 315 318 319 309 306 302 305 303 300 306 309 308 306 306 304 305 317 319 316
319 318 318 317 317 317 317 316 315 315 314 313 313 312 312 311 309 309 303 304 310 309 297 301 305 305 306 310 310 314 315 310 306 304 305 302 303 310 308 306 305 305 303 305 313 318 319
318 318 317 317 317 317 316 316 315 314 313 313 313 312 311 309 306 303 304 312 312 309 291 298 302 306 307 308 307 318 318 313 310 305 306 304 309 308 306 304 306 301 309 310 314 312 306
318 317 317 317 317 316 316 316 315 314 314 313 313 312 310 309 303 302 308 311 310 305 285 307 306 313 308 303 308 312 320 314 307 306 305 303 306 305 304 304 307 304 311 310 310 310 311
317 317 317 317 316 316 315 314 314 314 313 313 312 311 310 305 304 306 309 309 306 291 286 302 309 305 303 304 306 310 312 314 314 308 307 306 311 309 306 308 308 309 308 308 307 305 299
317 316 316 316 316 315 314 313 313 313 312 312 310 308 307 307 299 308 308 304 289 286 304 304 304 307 304 301 303 305 305 304 302 299 299 304 305 309 311 303 306 305 300 296 295 296 295
315 315 314 314 314 314 313 313 313 312 312 311 308 306 307 309 310 308 305 295 286 298 297 305 305 307 303 305 303 303 302 300 305 304 300 298 296 305 309 305 301 302 300 296 289 293 297
315 314 314 314 313 313 313 313 312 312 311 310 307 304 303 307 311 309 299 288 290 296 301 299 300 299 302 306 306 303 302 302 304 305 298 298 299 309 309 310 306 299 298 303 295 299 296
314 314 314 313 313 313 313 312 312 312 311 309 302 300 302 310 313 305 296 290 295 300 300 298 292 298 295 297 298 303 301 305 305 307 307 303 296 306 309 310 308 303 302 297 299 291 292
313 314 313 313 313 312 312 312 312 311 310 308 301 297 305 309 309 301 291 292 296 301 301 298 296 296 296 296 298 297 300 307 309 308 308 305 301 302 307 303 302 300 300 298 298 299 292
313 313 313 313 312 312 312 312 311 310 308 305 299 290 305 307 295 297 293 296 298 299 302 300 300 298 297 298 296 297 297 300 311 312 304 306 302 297 301 308 309 306 301 298 295 291 296
313 312 312 312 312 312 312 312 311 309 309 302 294 294 304 303 288 291 296 296 298 297 298 298 297 299 301 297 294 298 300 306 307 305 307 307 302 294 297 302 306 303 305 302 300 296 295
311 311 311 311 311 311 312 311 310 309 309 303 295 288 295 299 298 294 292 293 294 299 297 299 296 299 299 296 300 297 299 305 306 305 320 316 303 299 295 298 301 301 304 304 301 296 294
310 310 311 311 310 311 311 311 310 309 308 303 297 291 294 288 291 292 294 293 291 290 296 297 294 295 294 293 295 296 300 299 303 308 307 300 298 303 303 305 305 304 305 304 301 301 296
311 311 311 311 311 310 311 310 310 309 309 301 293 291 294 291 293 291 291 290 290 292 293 292 291 295 295 292 293 290 293 294 295 300 298 299 299 302 300 305 304 303 305 305 305 304 303
310 311 310 310 310 310 310 310 310 309 306 298 301 302 295 291 290 288 288 291 291 293 295 296 295 293 292 295 297 297 297 297 297 296 296 296 296 298 295 302 301 298 302 304 306 307 305
311 311 311 311 310 310 309 310 310 310 308 302 301 300 292 286 288 289 290 291 291 293 291 295 296 293 297 301 300 299 300 300 301 302 303 297 297 299 295 299 292 301 307 308 307 309 308
311 311 310 311 310 310 310 310 310 310 310 304 304 299 293 287 289 289 290 291 293 294 292 294 297 300 301 298 293 290 294 296 298 302 302 303 299 297 295 295 297 304 307 306 303 304 311
311 311 311 310 310 309 309 310 310 311 310 307 306 305 297 289 288 292 291 292 289 290 292 294 299 302 302 293 293 286 287 291 294 298 303 303 302 300 295 292 291 300 310 313 310 300 317
310 311 311 310 309 309 310 310 309 310 310 308 305 307 299 290 292 293 289 290 293 293 290 292 296 295 300 294 289 286 286 293 290 294 295 296 298 297 296 293 297 307 311 312 300 302 322
310 311 310 310 309 309 309 309 309 309 308 308 304 308 301 292 293 296 296 293 293 293 288 294 293 293 293 291 290 290 289 292 293 298 297 297 295 297 297 294 293 317 312 310 318 322 324
310 310 310 309 309 309 309 309 308 308 308 308 302 309 308 298 295 301 300 301 299 299 295 295 294 293 295 293 293 292 293 296 296 294 303 296 302 300 302 301 316 319 319 321 322 324 322

GFSGBSN_sfc_thetae_036.txt.gz
Theta_e
319 319 318 318 318 317 317 316 316 316 316 316 315 315 315 315 315 315 316 316 316 315 316 316 317 319 314 307 306 313 349 354 341 332 322 318 310 308 308 314 324 320 323 325 327 325 323
318 317 317 317 317 316 316 316 316 316 316 315 316 316 316 316 316 316 316 316 316 315 315 316 317 319 310 295 309 314 326 332 329 323 320 317 313 312 311 314 321 323 322 323 326 324 323
318 318 317 317 317 316 316 316 315 316 316 315 316 316 315 315 315 316 315 315 315 315 315 317 317 318 311 301 312 314 321 320 325 319 314 317 317 312 313 310 322 323 314 321 323 322 321
319 319 318 318 318 317 316 316 316 316 316 315 315 315 315 315 315 315 314 313 314 315 318 319 319 317 304 316 314 312 311 311 321 321 318 316 317 313 310 312 309 303 309 308 319 322 321
320 319 319 318 318 318 317 317 317 316 315 315 315 315 314 314 314 313 312 313 314 317 320 321 316 310 304 324 314 314 312 311 315 317 314 322 314 309 308 302 298 298 295 299 303 317 321
320 319 319 318 318 318 317 317 317 316 316 315 314 314 314 313 312 311 311 312 314 316 320 323 322 308 310 310 318 315 312 313 310 315 314 310 306 301 298 296 292 294 295 297 303 318 319
320 319 319 318 318 317 317 317 317 316 316 315 314 313 313 312 311 310 307 301 300 299 310 308 309 310 311 315 318 316 315 311 309 306 302 302 299 299 299 300 301 301 299 299 305 315 316
318 318 318 318 317 317 317 317 316 316 315 315 314 313 313 312 311 309 305 301 302 302 294 304 307 309 314 314 311 315 315 307 304 299 300 298 297 302 305 304 302 301 299 299 312 318 316
318 318 318 317 317 317 316 316 315 315 314 314 313 313 312 311 309 304 299 300 306 304 292 298 303 303 304 308 305 307 311 307 303 299 299 297 300 306 305 303 302 300 299 299 302 315 316
318 317 317 317 316 316 316 315 314 314 314 313 313 312 311 309 300 301 301 306 307 305 287 294 297 301 303 304 300 311 314 309 303 300 300 299 304 305 303 302 303 296 305 305 305 306 304
317 317 316 315 316 316 315 315 314 313 313 313 313 312 310 309 299 299 304 305 306 297 285 304 302 307 302 301 304 306 314 308 302 303 301 299 303 303 301 302 305 300 305 304 305 306 304
316 316 315 315 315 315 314 314 313 313 313 313 312 311 310 302 299 302 304 304 298 288 284 297 305 300 299 299 302 309 309 311 310 305 304 304 308 306 305 307 307 307 302 301 300 301 298
315 315 314 314 314 314 313 313 313 313 312 312 311 309 307 306 296 302 304 298 285 283 298 299 296 298 297 296 299 302 306 304 301 297 298 301 303 305 307 301 303 302 293 289 289 290 292
313 314 314 314 313 313 313 313 313 312 312 311 308 307 305 304 303 303 299 290 281 292 293 299 297 300 297 297 297 299 298 302 305 299 297 295 293 302 305 304 300 296 297 291 284 287 290
313 314 314 313 313 313 313 313 312 312 311 309 307 299 299 298 304 302 292 283 284 291 296 295 295 294 293 299 297 297 297 297 305 301 296 294 296 305 307 306 305 297 294 298 290 293 291
314 313 313 313 313 313 313 312 312 311 310 308 300 294 296 303 304 298 288 286 289 296 297 297 290 294 290 293 294 294 294 300 300 304 302 297 292 302 306 305 306 303 299 292 288 286 287
313 312 313 313 312 312 312 312 312 311 309 308 296 290 298 301 298 293 286 287 293 298 299 294 292 291 292 292 293 293 294 299 302 303 304 303 296 297 301 301 300 298 296 294 294 292 290
311 312 312 312 312 311 312 312 311 310 308 302 291 285 298 302 286 287 289 291 296 295 299 296 296 295 293 293 292 292 293 297 304 302 296 299 297 294 297 302 305 304 300 296 294 288 290
311 312 312 312 311 312 312 311 310 309 308 296 288 288 298 295 282 285 292 293 296 295 295 295 294 295 295 292 290 294 297 303 302 301 296 299 296 291 291 297 301 298 301 301 291 291 294
311 311 311 311 311 311 311 311 310 309 308 297 289 284 288 291 295 288 288 290 290 296 295 296 294 295 293 291 294 292 294 299 300 300 309 301 294 294 293 294 298 296 301 300 298 293 293
311 310 311 312 311 311 311 311 310 309 308 297 290 286 287 284 287 289 290 289 288 288 294 295 291 292 292 287 290 291 294 294 297 303 298 294 288 292 295 301 301 300 301 302 298 299 296
311 311 312 312 312 311 311 311 310 309 308 298 291 289 289 286 287 287 288 287 288 290 291 290 290 292 294 289 291 288 291 291 290 295 293 293 289 292 296 300 302 300 302 303 302 302 300
311 311 312 312 312 311 311 311 310 309 305 296 299 300 294 289 285 284 283 287 288 290 293 294 293 291 289 292 295 295 295 295 293 291 290 290 289 289 289 298 299 296 301 302 302 302 301
311 311 311 311 311 311 310 310 310 310 307 301 296 297 290 286 287 286 288 289 289 290 289 292 292 290 294 300 298 297 295 293 294 294 295 292 290 290 289 292 289 298 306 306 302 303 304
311 310 310 310 310 310 310 310 310 310 309 302 299 298 293 286 289 288 288 288 290 290 288 291 294 294 297 295 289 286 288 289 293 295 296 298 295 289 288 289 294 301 303 302 300 301 306
310 310 310 310 310 310 310 310 310 310 309 302 301 304 297 288 287 292 289 289 285 285 287 291 295 297 297 292 289 282 281 287 291 295 299 299 300 295 292 288 288 296 306 309 306 296 311
309 309 310 310 309 309 309 310 310 310 309 301 299 302 298 290 292 292 288 285 289 286 284 288 291 292 294 289 287 283 282 290 285 290 294 296 295 292 293 293 294 302 307 307 297 297 317
309 310 310 309 309 309 309 309 309 309 309 302 298 300 298 293 293 296 295 291 291 291 286 288 289 291 290 289 289 288 284 287 288 294 296 295 295 295 295 292 289 311 312 299 304 318 318
310 310 310 310 310 309 309 309 309 309 308 307 296 300 303 296 294 298 298 299 297 296 290 289 288 292 293 287 289 289 288 292 289 289 302 294 300 298 300 301 308 312 309 312 320 318 319

GFSGBSN_sfc_thetae_039.txt.gz
Theta_e
318 318 317 317 317 316 316 316 316 316 315 315 315 315 315 315 315 315 315 315 315 315 315 316 317 317 312 305 301 310 351 348 341 326 322 318 324 318 307 314 323 321 323 325 326 323 324
318 318 318 317 317 316 316 316 316 316 315 315 315 316 316 316 316 315 316 315 315 314 315 316 317 317 306 292 307 312 327 331 329 322 315 316 313 312 308 308 318 322 323 323 325 324 325
319 318 318 318 317 317 317 317 317 316 316 316 316 316 316 316 316 315 315 314 314 314 315 317 317 314 309 298 309 309 320 321 327 320 315 317 315 312 308 307 321 321 316 320 322 321 320
320 319 318 318 318 318 317 317 317 317 317 316 316 316 315 315 315 315 314 313 314 315 318 320 319 314 300 313 312 309 310 306 321 319 312 317 316 310 308 310 309 304 307 301 309 319 321
320 319 319 318 318 318 318 317 317 317 317 316 315 315 315 315 314 313 312 312 314 317 320 321 313 308 299 319 314 315 309 308 312 315 314 321 313 306 306 302 297 296 295 299 302 317 316
319 318 318 318 318 318 317 317 317 316 316 315 315 314 314 314 313 311 311 312 313 316 320 320 320 304 307 306 316 314 310 311 310 312 313 310 305 300 297 296 293 294 294 295 299 313 315
318 317 317 317 317 317 317 316 316 315 315 315 314 313 313 313 311 310 307 302 298 297 302 305 306 306 308 312 317 315 311 308 307 306 302 303 299 296 298 299 300 300 297 297 301 306 312
317 317 316 316 316 316 316 316 315 314 314 314 314 313 313 312 310 310 302 298 299 298 292 301 301 302 308 310 305 309 311 304 302 298 301 297 297 302 304 302 300 298 297 296 302 313 312
317 316 316 316 315 315 315 315 314 314 314 313 313 313 312 310 309 302 298 298 303 299 290 296 300 300 301 305 303 305 308 305 301 298 297 297 298 304 303 300 299 297 296 296 298 309 314
316 316 315 315 315 314 314 314 314 314 313 313 313 312 311 309 299 299 297 302 302 302 286 293 295 299 302 305 301 311 312 307 301 299 298 296 302 302 300 300 301 294 301 302 301 300 298
316 315 315 314 314 314 314 313 313 313 313 312 312 312 310 309 297 296 299 302 304 294 284 302 298 305 299 299 300 303 312 305 300 300 298 296 298 299 298 301 302 299 303 301 301 297 296
314 314 313 314 314 314 313 313 313 313 312 312 311 310 309 302 297 300 302 302 295 287 283 297 301 297 296 297 299 304 305 306 306 301 299 301 304 302 301 304 304 304 300 297 296 294 292
313 313 313 313 313 313 313 313 313 312 312 311 309 307 306 305 295 300 301 296 285 282 296 295 294 297 295 293 297 301 300 300 298 292 294 297 299 302 304 299 300 299 292 287 285 286 289
313 313 313 313 313 313 313 313 312 312 311 310 307 306 304 303 300 301 296 288 279 290 290 297 296 297 294 296 294 296 300 299 302 297 296 293 291 300 303 300 297 296 296 286 282 284 289
312 312 313 312 312 312 312 312 312 311 311 309 306 299 295 298 302 299 290 281 283 287 294 293 294 292 291 295 295 295 293 300 303 300 294 293 293 303 305 303 303 295 293 297 287 288 287
311 311 311 312 312 312 312 312 311 311 310 308 298 293 293 301 301 295 287 284 286 294 295 294 288 292 287 291 291 291 292 296 297 305 298 296 291 299 302 304 302 300 297 290 285 285 285
311 311 311 312 312 312 312 311 311 310 309 307 293 288 296 298 295 290 282 284 290 296 296 292 290 289 289 290 291 290 291 297 300 300 299 293 292 294 300 297 298 294 295 291 292 287 288
311 312 312 312 312 312 312 312 310 309 308 300 288 283 296 297 285 284 285 290 295 294 297 294 294 292 290 292 290 289 290 294 301 300 295 296 288 293 297 299 304 302 298 295 289 287 288
311 312 312 312 312 312 311 311 310 309 307 294 286 286 296 296 284 283 288 292 294 292 293 293 292 293 294 290 287 293 295 300 299 296 296 299 289 285 288 292 295 296 298 298 296 289 293
311 311 312 312 312 312 312 311 310 308 308 295 288 284 287 291 291 286 284 287 288 295 293 294 293 295 292 290 292 290 292 298 298 297 306 297 288 288 288 289 294 293 297 299 296 291 293
311 311 311 312 312 312 312 311 310 309 307 298 288 287 286 281 285 286 289 288 288 287 293 293 289 291 290 284 287 289 292 292 295 300 295 292 286 289 292 295 297 296 298 299 294 297 294
311 311 311 311 312 312 312 311 310 309 307 298 291 289 292 288 289 284 285 286 287 287 289 290 288 289 289 286 288 286 289 287 288 292 289 290 288 289 290 296 298 296 298 300 300 300 297
311 310 310 311 311 312 311 311 310 309 304 297 299 298 293 290 288 284 283 284 286 288 291 293 291 289 287 290 293 292 293 292 292 288 287 287 287 287 285 293 293 292 297 299 300 301 300
310 310 310 310 310 310 310 311 311 310 305 298 300 297 290 284 287 287 288 288 287 288 287 291 290 289 292 296 295 293 291 292 293 292 292 287 287 288 285 289 285 297 303 304 301 301 300
310 310 310 310 310 310 310 310 311 310 309 297 297 297 292 286 288 288 289 288 288 288 287 287 291 294 293 292 286 284 284 285 289 292 291 292 288 286 285 285 292 299 300 300 298 297 303
309 309 309 310 309 309 309 309 310 310 309 298 296 299 297 286 287 291 288 288 285 285 286 289 293 294 293 288 285 282 279 285 285 290 293 292 292 292 287 285 285 295 308 312 305 297 304
310 310 309 310 310 309 310 310 309 309 309 300 297 299 297 290 292 292 287 286 290 288 286 287 288 289 290 284 283 280 282 287 283 285 286 287 288 287 289 288 292 306 310 313 295 297 306
310 310 310 310 310 310 310 310 310 309 309 302 299 298 294 291 291 294 294 291 291 290 285 286 286 288 286 286 285 286 285 286 285 288 289 291 289 289 290 290 287 310 310 301 304 309 312
310 311 311 311 310 310 310 310 310 310 309 307 298 300 301 296 292 296 297 298 296 295 292 289 289 286 288 285 286 287 286 287 286 284 294 290 296 294 295 295 305 309 310 312 313 311 311

GFSGBSN_sfc_thetae_042.txt.gz
Theta_e
319 318 318 318 318 318 317 316 316 317 317 316 316 316 316 315 315 315 316 315 315 315 315 316 316 317 311 301 299 336 350 345 354 338 337 334 329 325 316 320 323 320 323 324 325 322 328
319 319 319 318 318 317 317 316 316 316 317 317 316 316 316 316 315 316 316 316 316 315 315 316 317 316 303 289 303 310 331 336 344 331 331 328 332 324 309 307 318 322 322 322 323 322 324
320 319 318 318 318 317 317 317 316 316 316 316 316 316 316 316 315 316 316 315 314 314 315 317 317 313 308 295 306 309 329 325 334 324 319 316 319 322 310 303 312 318 312 315 321 320 319
319 318 318 317 317 317 316 316 316 316 316 316 315 315 315 315 315 315 314 313 314 315 318 319 319 311 296 309 311 309 316 317 325 320 313 315 315 319 306 307 306 307 310 304 311 315 319
318 318 318 318 317 317 316 316 315 316 315 315 315 315 315 315 314 313 312 313 315 321 322 321 310 306 296 317 311 309 307 307 318 315 313 319 312 305 305 300 297 295 294 298 302 311 313
318 318 317 316 316 316 316 316 316 315 315 314 314 314 314 313 313 311 311 312 314 319 318 318 317 302 306 304 313 313 307 308 306 312 311 309 303 299 296 295 291 294 293 294 299 306 313
317 316 315 315 314 315 315 315 315 315 315 314 314 313 313 312 311 310 307 299 296 296 297 305 305 305 307 309 312 310 308 307 308 306 300 303 298 294 298 298 299 300 297 297 300 304 310
316 315 314 314 313 314 314 314 314 314 313 314 313 313 312 311 310 309 300 296 296 296 290 299 298 300 307 305 303 306 308 302 301 298 301 296 297 302 302 301 300 298 296 295 299 303 306
315 314 314 314 314 314 313 313 313 313 313 313 312 312 311 310 309 300 297 297 301 296 288 294 298 298 300 302 300 302 305 302 299 296 300 298 298 304 302 298 298 295 296 295 297 305 311
313 314 314 314 314 314 314 313 313 313 313 312 312 312 310 309 298 297 295 299 299 299 285 292 294 298 301 301 297 308 308 304 299 300 296 296 302 303 299 298 299 291 299 300 299 296 292
314 314 314 313 313 313 313 313 313 313 312 312 312 311 309 308 296 295 297 301 301 292 282 300 294 302 300 298 298 301 310 303 298 298 297 296 298 298 299 300 301 297 302 299 299 296 293
313 313 312 312 312 312 313 312 312 312 312 312 311 310 308 300 296 298 300 300 293 287 282 295 299 295 294 296 297 302 303 305 304 299 297 298 301 301 299 301 302 303 298 295 293 292 288
312 312 312 311 311 312 312 312 312 311 311 311 310 308 305 304 294 299 299 293 284 281 294 293 292 295 294 293 294 298 298 299 296 291 291 295 298 299 301 297 298 299 292 285 284 285 288
311 311 311 312 312 312 312 312 311 311 311 309 307 305 301 301 300 298 294 287 278 289 288 295 295 295 292 294 293 295 295 297 298 295 293 290 289 297 300 297 295 295 292 285 281 281 290
311 312 312 312 312 312 312 312 311 311 310 308 306 296 295 297 301 297 289 279 280 286 292 292 292 290 289 293 293 293 291 295 300 296 292 290 291 300 301 301 300 292 291 294 286 286 284
311 311 312 312 312 312 312 312 311 311 310 308 297 294 292 299 297 294 286 282 285 292 294 292 286 290 286 289 290 289 290 295 296 299 297 294 289 297 301 301 301 296 298 290 285 283 281
311 311 312 312 312 312 312 312 311 311 309 307 291 287 293 298 295 289 279 282 289 294 295 290 288 287 287 288 289 288 289 295 298 297 298 292 291 293 297 296 297 293 291 289 292 286 284
311 312 312 312 312 312 313 312 311 309 308 298 287 282 294 295 284 283 285 287 294 293 295 292 292 291 289 291 288 288 290 293 298 296 294 296 286 289 292 297 303 302 297 290 290 285 286
311 312 312 312 312 312 313 312 311 309 307 293 286 287 295 294 279 280 285 289 291 292 291 291 291 292 292 289 285 292 294 298 298 296 295 296 288 284 287 294 295 294 296 292 290 287 292
311 311 311 312 312 312 312 312 310 309 307 293 287 281 286 289 286 283 283 284 286 293 293 294 292 294 291 289 291 288 291 297 297 298 303 296 287 285 285 288 292 290 296 296 295 290 292
311 311 310 311 312 312 312 311 310 309 307 294 286 283 286 280 284 286 284 285 286 286 291 294 291 289 288 283 286 286 291 291 294 298 293 290 285 287 290 293 295 294 295 296 295 296 292
310 311 310 310 312 312 312 311 310 309 306 293 288 290 291 288 289 288 286 282 286 286 287 287 288 289 289 284 285 284 287 286 287 290 287 288 285 287 288 294 295 293 296 297 297 297 297
310 310 310 310 310 310 311 311 311 309 303 297 298 298 292 287 287 286 284 284 286 287 289 292 290 288 286 288 291 291 291 291 290 287 286 285 285 286 284 291 291 289 295 297 297 298 298
310 310 310 310 310 310 310 311 311 309 304 298 295 297 290 284 286 286 287 288 287 287 285 289 290 287 291 294 293 290 288 290 291 290 290 284 285 286 284 287 283 292 300 301 299 300 300
310 310 310 310 310 310 310 310 310 310 308 297 295 296 292 285 288 288 288 288 288 287 286 287 290 290 293 291 285 282 282 283 287 289 289 290 285 283 284 283 290 294 303 304 300 297 302
311 311 310 310 310 310 310 310 310 311 309 298 295 296 294 288 287 291 288 289 285 285 285 287 291 292 290 286 284 278 277 282 283 287 290 290 290 286 284 283 282 294 306 312 310 295 306
310 311 311 310 310 310 310 311 311 310 310 302 299 298 297 289 291 291 287 286 290 288 286 288 286 287 289 286 283 277 278 285 281 282 282 282 285 282 284 285 289 301 309 311 295 297 309
310 311 311 311 311 310 310 310 311 311 310 304 300 299 297 291 291 292 292 290 289 289 284 288 284 287 289 285 284 284 283 287 285 286 285 284 283 281 283 284 284 307 308 302 304 310 312
310 310 310 310 311 311 311 311 311 311 311 309 299 301 301 295 293 297 296 297 295 294 291 291 289 285 286 285 286 285 282 286 285 283 291 286 290 289 288 288 299 308 307 311 311 312 313

GFSGBSN_sfc_thetae_045.txt.gz
Theta_e
320 319 319 319 318 318 316 316 317 317 316 316 315 316 315 316 316 316 316 317 317 316 316 317 317 316 314 305 301 329 342 341 352 343 335 333 331 330 324 328 326 322 325 328 329 329 327
318 318 318 318 317 317 316 316 316 316 315 315 315 315 315 316 316 316 316 316 316 315 316 316 316 315 308 294 307 321 329 340 341 337 332 334 331 333 327 325 326 326 327 327 326 326 329
318 318 318 317 316 316 315 315 315 315 315 314 315 315 316 315 315 315 315 315 315 315 315 317 317 313 308 301 313 316 333 338 339 334 329 333 335 332 323 312 323 320 315 317 321 325 325
318 318 316 315 315 315 314 315 314 314 314 314 314 315 315 315 315 314 313 313 316 320 318 317 318 313 301 310 313 310 329 330 341 336 329 333 336 332 317 314 311 312 315 310 318 324 325
317 316 316 314 314 314 314 314 313 314 314 314 314 314 314 314 313 312 311 313 319 323 322 320 313 310 301 319 308 310 324 319 330 329 325 328 325 319 313 312 307 306 305 308 312 321 321
316 315 314 314 314 314 314 314 313 314 314 314 314 313 313 313 312 310 311 311 318 320 318 319 315 305 307 306 313 310 313 322 322 321 316 314 315 311 308 307 299 302 303 306 308 313 317
315 314 314 314 314 313 313 313 313 313 314 314 314 313 312 312 310 309 308 307 302 303 301 309 310 306 310 313 318 311 311 316 315 315 306 310 304 301 304 307 307 305 305 307 310 312 314
314 314 313 313 313 313 313 313 313 313 313 314 313 313 312 311 310 309 306 300 298 299 293 302 300 303 310 310 306 309 310 308 306 303 307 304 301 306 307 306 304 304 303 305 308 308 309
314 313 313 313 312 313 313 313 313 313 313 313 312 312 311 310 309 304 301 300 304 303 294 299 301 301 303 306 304 307 307 306 304 301 302 301 303 307 305 304 302 302 301 304 305 307 313
313 313 313 313 313 312 312 312 312 312 312 312 312 311 310 309 302 301 299 303 305 303 292 297 297 302 303 306 302 310 311 307 304 301 302 302 307 304 303 303 304 299 305 304 305 304 301
312 313 313 313 312 312 312 312 312 312 312 312 311 311 309 307 302 299 301 305 305 300 285 300 298 307 305 303 303 304 312 308 303 303 304 301 303 303 302 303 306 302 306 304 304 304 304
311 311 311 311 311 311 312 312 312 312 312 311 310 309 309 304 303 304 304 304 301 291 285 298 300 298 299 302 302 306 306 311 309 305 305 305 307 307 306 307 307 308 305 304 303 303 297
311 311 312 311 311 312 312 312 312 312 311 310 309 307 306 305 298 304 303 300 290 286 297 294 295 299 298 298 298 301 302 302 301 297 298 302 302 307 308 304 307 306 302 295 294 294 295
311 311 312 312 312 312 312 312 312 312 311 309 307 305 302 304 305 303 302 293 284 290 291 296 296 297 295 297 298 298 300 299 305 304 300 297 294 302 306 305 302 303 302 296 290 292 296
311 312 313 313 313 313 313 313 312 312 311 309 306 302 302 304 304 303 297 284 287 290 292 291 294 293 293 295 296 297 298 300 304 304 299 298 298 305 305 307 306 302 300 305 298 297 295
312 312 313 313 312 312 313 313 312 312 310 308 301 297 298 303 302 302 292 285 289 294 295 294 288 292 290 292 294 295 296 298 300 302 303 302 297 304 304 307 307 304 306 296 299 291 290
312 312 312 313 312 312 313 313 312 311 309 305 298 294 300 303 302 296 286 287 290 296 297 293 291 290 291 291 293 293 294 297 299 300 304 302 301 300 304 301 301 300 301 301 301 298 293
311 312 312 312 312 312 313 313 311 309 307 302 295 289 300 302 290 291 287 289 293 294 297 295 295 294 292 293 292 293 293 296 299 302 298 301 298 299 300 306 308 305 303 302 297 296 297
311 312 312 312 312 313 313 312 310 309 306 302 292 291 301 300 285 286 289 289 292 292 293 294 292 295 296 293 290 294 295 299 299 300 298 300 297 295 298 302 304 302 304 304 303 303 299
311 311 311 312 312 312 312 311 310 309 307 301 294 288 293 294 293 288 286 287 287 293 292 294 292 294 293 292 295 291 293 297 298 300 303 301 297 296 296 298 299 298 301 304 302 298 299
311 311 311 310 311 312 312 311 310 309 306 302 295 290 292 286 288 289 289 287 286 286 291 292 289 290 288 288 289 290 293 293 295 299 297 298 292 294 296 296 297 298 298 300 300 303 300
311 311 310 310 310 310 311 311 311 309 305 301 293 291 292 288 290 288 288 286 286 288 288 287 288 289 289 286 289 288 291 292 291 296 294 296 291 294 292 296 297 296 299 300 300 301 301
311 311 310 310 310 310 310 311 310 309 305 300 301 301 292 289 288 286 287 287 287 289 290 292 290 288 287 290 293 294 295 295 294 293 292 292 292 291 289 294 295 293 298 300 301 303 303
311 311 311 311 311 311 311 311 311 310 307 303 303 299 291 285 288 287 288 289 288 288 287 291 291 289 292 297 296 296 295 294 294 293 295 291 291 294 289 292 286 299 305 306 303 304 306
311 311 311 310 311 311 311 311 311 310 309 303 303 298 293 287 289 288 289 289 291 290 288 289 291 294 297 293 290 286 288 290 292 293 293 294 292 289 286 289 293 296 301 307 306 304 311
311 311 311 310 310 310 311 311 311 311 310 303 303 303 296 289 288 292 290 290 287 287 287 289 295 297 296 293 289 281 281 285 285 290 295 294 293 290 289 285 285 297 303 309 312 300 313
311 311 311 311 310 310 311 311 311 311 310 306 302 304 298 290 293 293 289 288 291 288 287 289 291 291 296 290 285 283 283 288 283 284 288 287 287 285 286 286 292 301 308 315 301 303 316
310 311 311 311 311 311 311 311 312 312 311 308 302 302 299 292 293 295 295 291 292 291 287 290 289 290 291 286 286 287 285 288 287 290 290 289 287 286 287 285 283 302 309 304 311 316 318
310 311 311 311 311 311 311 311 312 312 312 311 301 303 303 296 294 300 300 300 298 296 292 292 290 290 291 287 288 286 286 288 287 284 295 288 292 291 291 290 300 304 306 315 317 316 318

GFSGBSN_sfc_thetae_048.txt.gz
Theta_e
319 319 318 317 317 316 315 315 315 315 315 315 315 315 315 315 315 316 317 317 317 315 316 317 317 317 317 310 307 325 341 338 345 333 330 332 329 326 321 326 328 327 329 331 332 331 330
319 318 317 316 315 315 315 315 315 315 315 314 314 315 316 316 316 316 316 315 315 315 316 317 317 317 313 303 314 314 325 328 334 332 329 333 329 328 325 327 326 327 329 330 330 329 329
317 316 315 314 315 315 315 314 314 314 314 314 315 315 315 315 315 315 315 314 314 317 321 318 317 317 311 310 315 316 325 327 334 333 326 332 333 328 326 324 328 328 323 326 325 326 328
317 315 314 314 315 314 314 314 314 314 314 314 315 315 315 315 315 314 313 313 316 323 319 318 319 317 310 317 319 318 324 328 334 333 328 329 332 330 323 320 316 316 317 314 323 325 328
315 315 314 314 314 314 314 314 314 314 315 315 315 315 315 314 314 313 312 313 321 322 321 320 317 315 309 316 309 316 325 326 331 329 328 329 329 324 326 317 312 313 311 314 318 326 325
314 314 314 314 314 313 314 314 314 314 314 314 314 313 313 313 312 311 311 313 321 321 321 322 318 309 312 310 314 312 326 325 328 328 322 324 323 316 318 315 305 309 310 315 316 321 323
314 314 314 314 313 313 313 313 313 313 313 313 313 313 312 312 311 310 310 312 310 311 308 312 315 311 313 316 318 310 321 322 327 320 310 316 311 306 309 312 312 313 312 312 317 321 319
314 314 313 313 313 312 313 313 313 313 312 313 313 312 312 311 310 310 311 305 301 302 297 306 306 308 318 317 312 310 319 315 317 310 311 308 306 311 312 310 310 310 309 310 316 317 315
313 313 312 312 312 312 313 313 313 313 313 313 312 312 311 310 309 309 307 304 309 308 298 304 308 307 308 311 310 311 315 313 312 309 309 306 307 311 309 309 308 309 308 309 311 315 316
311 312 313 313 312 312 313 313 313 313 313 312 312 311 310 308 308 308 305 309 311 309 296 301 302 306 308 312 307 317 312 313 310 308 309 308 310 308 308 306 308 305 311 310 309 309 307
311 311 312 313 313 313 313 313 313 313 312 312 312 311 309 307 307 304 306 310 310 307 288 303 303 311 309 308 311 310 316 312 307 306 309 306 307 306 305 306 309 306 311 309 309 308 308
312 312 312 312 312 313 313 313 313 313 312 312 311 310 308 308 309 308 310 310 308 294 288 300 303 302 302 306 307 311 311 311 310 307 309 307 311 310 309 310 309 310 308 308 308 307 301
312 312 313 312 313 313 313 313 313 313 312 311 309 307 308 309 303 310 310 306 292 288 300 298 299 302 303 303 304 306 306 305 304 300 301 305 306 310 311 307 310 308 305 299 297 298 298
312 313 313 313 313 313 313 313 313 312 311 310 307 305 306 308 310 310 306 297 285 293 295 300 299 300 299 302 303 304 304 303 307 306 305 301 298 306 311 308 307 306 305 300 295 297 300
312 313 313 313 313 313 313 313 312 311 310 309 306 308 307 308 310 309 300 288 288 294 296 296 297 297 300 300 300 302 303 304 307 309 303 303 303 309 310 311 311 306 303 308 303 304 301
312 312 312 313 313 313 313 313 312 311 310 308 306 305 304 309 310 306 295 288 292 296 297 297 292 296 294 297 298 300 302 303 305 310 311 308 303 309 309 311 311 309 310 301 303 296 295
311 312 312 313 312 313 313 313 312 311 309 307 305 299 305 309 308 299 290 290 292 296 297 294 294 294 296 296 298 299 300 301 304 305 307 308 306 307 308 305 305 306 305 306 306 303 298
310 312 313 313 312 313 313 313 311 309 307 306 302 294 305 308 296 296 291 292 293 295 298 296 297 294 294 297 297 298 298 301 302 305 304 309 307 304 304 310 311 309 307 307 301 300 303
312 312 312 312 312 312 313 312 311 309 307 306 298 298 306 304 289 290 293 292 294 293 293 294 294 297 297 296 294 297 299 301 302 303 303 307 303 300 303 307 309 306 308 308 307 307 304
311 311 311 312 312 312 312 311 310 309 308 306 299 293 300 301 300 292 289 291 290 294 293 293 292 295 294 295 298 295 296 299 300 301 304 304 305 304 301 304 307 304 306 307 306 303 304
311 311 311 312 312 312 312 311 311 309 307 306 301 295 295 290 292 291 290 290 289 288 293 294 291 290 289 290 293 294 296 298 299 301 302 302 301 302 306 303 302 306 305 306 305 307 303
311 311 311 312 312 312 312 312 311 310 307 303 296 294 296 294 292 290 291 289 289 290 290 290 289 289 291 288 289 289 292 296 295 299 299 301 298 300 300 302 301 300 304 305 306 307 308
311 311 311 312 312 312 312 312 312 310 306 301 303 303 298 292 292 288 289 289 290 292 293 292 292 291 289 290 295 297 298 298 298 296 296 296 297 296 296 302 301 298 303 305 306 308 308
312 312 312 311 311 312 312 312 312 310 308 304 304 300 293 288 290 289 290 291 290 291 290 294 294 291 295 300 299 299 298 298 297 297 298 295 296 296 295 299 290 304 311 309 307 308 310
312 312 312 311 311 312 312 312 312 311 309 304 304 298 293 288 291 291 292 291 292 292 291 293 294 298 300 297 292 290 291 292 294 295 296 298 296 294 292 293 299 303 304 304 305 307 312
311 311 312 311 312 312 312 311 312 312 311 306 304 304 297 289 290 293 291 292 289 290 291 293 297 300 299 294 291 285 285 288 289 293 298 297 297 294 294 290 290 301 307 310 311 302 313
311 311 311 311 311 312 311 312 312 312 312 308 304 305 298 289 294 294 291 291 293 291 289 292 293 294 298 292 288 286 286 291 287 288 292 292 292 289 291 290 296 304 309 315 300 308 320
310 311 311 311 311 311 311 311 311 312 312 310 305 305 299 292 294 296 298 293 294 293 289 292 293 295 294 289 289 291 288 292 290 293 292 292 289 289 290 289 287 304 304 304 312 318 320
310 310 311 311 311 311 311 311 312 312 312 312 304 305 304 296 295 300 301 302 300 298 294 294 293 293 297 293 294 290 290 292 290 287 297 290 294 294 294 293 303 305 306 309 311 312 315

GFSGBSN_sfc_thetae_051.txt.gz
Theta_e
318 317 316 316 316 316 316 316 316 315 315 315 315 315 316 316 316 316 317 317 316 315 316 317 318 318 317 314 313 326 346 342 326 321 320 325 325 325 323 326 328 326 328 331 332 332 331
317 316 315 316 316 315 315 315 315 315 315 315 316 316 316 316 317 317 317 316 316 315 318 320 318 318 315 310 323 323 325 327 328 326 322 327 326 329 327 325 325 328 329 331 332 330 331
316 316 316 315 315 315 315 315 315 314 314 315 316 316 315 315 316 316 316 315 314 318 322 323 320 318 315 315 321 318 323 325 332 329 324 328 330 328 328 324 331 329 324 329 330 330 328
315 315 315 315 315 314 314 314 314 314 315 315 315 315 315 315 315 314 314 314 315 323 320 320 320 318 314 325 328 322 323 324 331 333 330 330 331 328 327 330 322 323 325 319 327 328 328
315 315 315 314 315 314 314 313 313 314 315 315 314 315 314 314 314 313 312 313 316 322 319 320 320 318 315 320 316 321 321 321 328 330 331 329 329 324 324 320 315 316 313 315 320 327 326
315 314 314 314 314 314 314 314 314 314 314 314 314 314 314 313 312 311 311 314 319 320 323 324 324 314 317 315 320 318 322 323 325 325 324 322 320 318 318 318 308 310 311 315 316 323 325
314 314 314 314 313 313 313 314 313 314 314 314 314 313 313 312 311 310 312 314 311 315 317 313 316 314 317 321 320 315 322 323 325 322 315 318 313 310 313 318 319 316 314 313 319 323 323
313 313 313 313 313 314 314 314 314 314 314 314 314 313 312 311 311 310 312 307 305 306 299 307 308 308 314 322 315 313 323 316 320 314 318 314 310 315 317 316 318 316 314 314 319 322 323
312 312 313 314 314 314 314 314 314 314 314 314 313 313 312 310 310 310 310 307 312 311 300 303 308 308 309 313 315 315 314 317 316 314 314 310 313 316 314 312 313 316 312 313 314 319 322
313 313 313 314 315 314 314 314 314 314 314 313 313 312 311 308 308 311 307 311 313 311 297 302 306 308 311 311 308 319 315 317 316 314 314 311 314 311 311 309 311 307 314 314 313 314 310
313 314 314 314 314 314 314 314 314 314 313 313 313 311 309 307 311 308 308 312 312 310 289 306 306 314 312 307 312 313 318 316 311 312 314 309 310 309 308 310 312 309 314 313 313 311 312
313 313 313 313 313 314 314 314 313 313 312 312 311 310 309 309 311 310 311 311 310 296 288 303 306 305 305 307 309 314 314 315 316 312 314 313 316 313 311 312 312 314 311 312 312 310 303
313 313 313 313 313 314 314 313 313 312 311 311 309 307 308 310 305 311 311 307 294 288 302 300 301 305 305 306 306 309 309 306 306 302 304 309 311 313 314 310 312 310 307 301 300 301 301
312 313 313 314 313 314 314 314 313 312 311 310 307 306 311 311 312 311 308 299 287 293 296 302 300 301 299 304 307 307 307 306 308 308 306 303 301 310 312 310 308 308 307 301 296 298 302
312 313 314 314 313 313 314 313 312 311 310 309 306 312 310 310 311 310 303 291 291 294 297 295 297 297 300 305 304 306 306 306 309 309 303 304 304 313 312 313 312 308 305 310 305 307 303
311 312 313 314 313 313 313 313 312 311 310 308 309 309 310 310 311 308 299 291 294 297 297 296 290 296 295 299 302 303 305 308 308 311 312 309 305 311 312 313 313 311 313 303 305 300 299
312 312 313 313 313 313 313 313 312 311 309 308 309 302 308 310 310 302 293 292 294 297 297 293 292 292 294 294 296 300 304 306 308 309 313 311 309 309 313 308 307 308 308 308 307 305 300
312 313 313 313 313 313 313 313 312 310 308 307 306 298 309 310 298 300 294 294 294 295 297 296 296 295 294 295 295 296 298 305 305 307 306 311 309 305 308 312 314 312 309 310 304 303 305
312 313 313 313 313 313 313 312 311 310 309 306 303 302 310 307 293 294 296 295 296 294 294 293 293 295 298 295 292 298 300 305 304 306 306 310 306 302 306 310 312 309 311 311 310 309 306
312 312 312 313 313 313 313 312 311 310 309 307 303 296 302 303 302 295 293 292 292 296 295 295 294 296 295 294 297 296 297 302 304 304 306 307 306 306 303 308 310 306 308 310 309 306 306
312 312 312 313 314 313 313 313 312 310 309 308 300 295 299 291 296 295 295 294 291 290 294 296 293 292 291 290 292 291 296 300 304 304 306 306 303 307 309 310 310 309 308 309 307 309 306
312 313 313 313 313 313 313 313 312 311 308 303 296 295 298 294 296 294 293 291 291 291 292 292 291 291 293 291 291 289 293 295 297 302 303 306 301 306 306 309 308 305 309 309 309 309 310
312 313 313 313 313 313 313 313 313 311 307 302 303 302 297 293 294 292 291 293 292 293 294 296 294 293 291 293 297 298 298 299 299 297 297 300 301 303 300 307 306 302 307 309 310 312 311
312 312 313 313 313 313 313 313 313 312 308 308 303 298 291 289 292 292 293 293 293 293 291 293 296 293 296 301 301 300 300 299 299 300 301 298 300 301 298 303 295 307 314 312 310 312 313
312 312 312 312 313 313 313 313 313 312 311 309 306 298 292 287 292 292 293 293 295 295 294 295 296 299 301 298 293 291 293 294 296 298 299 301 298 297 295 299 304 307 309 310 309 309 314
312 312 312 312 313 313 312 312 313 312 311 309 305 304 297 289 289 295 293 294 292 291 293 296 299 302 300 295 292 287 287 291 292 294 299 300 300 296 297 294 295 306 311 312 314 305 315
312 312 312 312 312 311 312 312 312 312 312 309 306 305 298 290 294 295 292 291 296 295 291 295 296 297 300 292 288 288 288 293 289 291 293 293 295 292 294 294 300 308 311 315 301 310 322
311 311 311 311 312 311 311 312 312 312 312 310 308 306 300 293 295 297 298 294 294 295 291 296 295 296 295 291 290 291 291 293 292 294 294 294 292 292 294 293 292 309 307 304 313 317 314
310 311 311 311 311 310 311 312 312 312 312 312 305 307 306 297 297 302 302 304 302 301 296 298 296 296 298 295 294 294 291 293 292 289 298 292 298 296 297 297 306 308 308 311 312 311 314

GFSGBSN_sfc_thetae_054.txt.gz
Theta_e
317 317 317 316 316 316 315 315 315 315 315 315 315 315 316 316 315 316 316 317 316 316 317 319 319 319 317 312 313 326 350 346 328 318 314 315 317 319 317 322 326 325 327 331 331 333 327
316 316 316 316 315 315 315 315 315 315 315 315 316 316 316 316 316 316 316 316 316 316 319 322 321 318 313 309 327 327 326 330 321 316 315 316 316 323 321 322 323 328 327 329 330 329 332
316 316 315 315 315 315 314 314 314 314 315 316 316 316 316 316 316 316 316 315 315 315 321 323 323 318 312 312 327 324 323 326 325 321 314 318 321 322 323 321 327 326 322 325 328 329 328
315 315 315 315 314 314 314 314 314 315 316 316 316 316 316 316 315 315 314 314 314 316 325 321 324 317 311 326 326 325 319 321 325 327 321 323 326 324 323 327 324 320 321 316 324 329 330
315 315 315 314 315 315 315 314 314 315 315 315 315 315 315 315 314 313 312 313 315 319 321 320 318 316 313 328 321 325 325 317 322 328 327 327 325 321 322 318 316 319 313 317 320 327 327
314 314 314 314 314 315 315 315 315 315 315 315 315 315 314 314 313 312 312 314 320 320 321 323 323 315 318 315 321 323 326 320 319 323 322 322 320 316 316 314 307 312 312 317 317 324 326
313 314 314 314 314 315 315 315 315 315 315 315 314 314 313 312 312 311 311 313 306 314 308 308 315 313 315 323 322 318 321 317 318 320 313 318 312 310 313 316 317 316 313 313 317 321 322
314 313 314 315 315 315 315 315 315 315 315 314 314 313 313 312 311 310 311 305 305 306 299 306 306 307 312 316 313 317 320 312 313 311 315 314 309 314 315 316 315 315 313 312 316 322 320
314 315 315 315 315 315 315 315 314 314 314 314 313 313 312 310 310 311 310 307 311 311 299 300 305 305 307 310 309 315 315 314 311 311 313 310 312 315 313 312 311 314 313 313 312 320 322
315 315 315 315 315 314 314 314 314 314 313 313 313 312 310 309 308 312 307 310 311 311 295 300 305 309 308 309 305 316 318 316 314 310 314 312 316 313 312 311 312 307 316 316 314 315 310
314 315 315 314 314 314 314 314 314 313 313 312 312 311 310 308 309 308 308 311 311 309 288 306 307 315 313 305 309 308 319 314 311 312 314 311 312 312 310 311 314 310 315 316 315 311 312
314 315 315 314 314 314 314 314 313 312 312 312 311 310 309 310 311 311 311 310 309 295 287 301 307 305 306 308 307 310 310 316 315 312 315 314 319 315 312 314 314 314 311 312 312 310 304
313 313 314 314 314 314 314 313 313 312 311 311 309 308 308 311 307 311 311 306 293 288 299 296 298 300 300 301 305 306 306 308 304 303 306 311 313 315 314 309 313 311 306 300 299 301 301
312 313 314 314 314 313 313 313 313 312 311 310 307 306 313 313 313 310 307 299 288 293 294 300 298 297 296 302 304 305 305 305 308 308 306 303 302 312 314 311 308 308 306 301 295 297 301
313 313 314 314 314 313 313 313 312 311 310 309 306 312 313 312 310 309 302 292 291 293 296 295 295 292 294 299 299 302 305 304 308 307 304 304 304 314 315 314 312 307 304 309 303 305 302
313 313 313 314 314 313 313 313 312 311 310 308 307 309 310 313 312 307 299 292 295 298 296 295 289 292 288 292 293 296 300 308 307 311 310 308 303 310 313 315 312 310 312 302 304 297 297
313 313 313 314 314 313 313 313 312 311 310 308 308 305 310 313 311 302 294 294 296 299 297 293 291 290 291 290 293 292 296 302 307 306 312 308 306 306 311 309 307 307 307 307 306 304 298
313 314 314 314 314 314 314 314 312 310 308 307 306 299 313 311 298 299 295 296 296 296 298 296 295 293 292 292 292 293 293 299 307 307 302 310 306 302 305 313 313 311 308 309 303 302 304
314 314 314 314 314 314 314 314 312 311 309 306 302 303 312 309 293 294 297 296 297 295 295 294 293 294 295 291 289 294 297 303 304 304 302 305 304 299 302 309 313 309 309 309 310 308 305
313 313 313 314 314 314 314 313 312 311 310 306 301 295 302 303 301 296 294 293 293 297 295 296 294 295 293 290 293 291 293 299 302 303 312 307 303 303 301 305 310 307 308 309 307 305 304
313 313 313 314 314 314 314 313 313 311 310 306 300 296 298 292 293 293 295 294 291 292 295 295 293 293 292 289 290 290 294 296 301 306 305 305 301 306 307 309 311 308 307 308 308 309 306
313 313 313 313 313 313 314 313 313 312 309 303 297 294 296 294 295 293 294 291 292 293 293 291 291 292 294 290 291 289 292 294 293 298 299 303 300 305 304 308 309 308 309 309 309 309 309
312 313 313 313 313 313 313 313 313 312 309 302 304 302 295 292 292 291 291 292 293 295 296 296 294 293 292 293 296 297 297 297 297 295 296 299 299 300 298 306 307 303 309 309 310 311 311
312 312 313 313 313 313 313 313 313 312 310 308 307 298 291 287 290 291 293 294 293 294 293 295 296 293 297 301 300 298 298 297 297 298 300 297 298 299 298 302 295 308 315 313 311 313 314
312 312 313 313 313 313 312 312 313 312 312 312 309 298 292 287 291 292 292 293 295 297 295 296 298 299 301 298 292 290 292 293 295 298 298 301 297 296 295 297 304 308 311 311 309 309 315
312 312 312 312 312 312 312 311 312 313 312 313 308 304 297 289 290 294 293 295 292 293 295 296 300 303 299 294 292 286 285 291 290 293 300 299 300 296 297 294 294 306 312 316 315 305 321
312 312 312 312 311 311 312 312 313 313 312 311 307 306 299 290 293 294 291 293 296 295 293 296 298 297 299 292 288 287 287 293 290 290 292 293 294 293 294 294 300 308 311 315 303 309 318
311 311 311 311 311 311 312 312 313 313 313 311 308 307 300 293 295 297 299 295 295 294 290 296 295 295 296 290 291 291 290 292 293 294 293 294 292 291 294 293 293 309 308 306 314 316 314
310 311 311 311 311 311 312 312 312 313 313 312 305 309 306 297 297 302 302 304 301 301 297 298 295 296 295 292 294 293 290 293 292 287 298 291 297 295 297 297 307 306 307 310 312 312 313

GFSGBSN_sfc_thetae_057.txt.gz
Theta_e
317 316 316 316 316 316 315 315 315 316 316 316 316 317 317 317 317 317 317 317 316 316 317 319 321 319 314 307 308 326 350 351 331 323 313 309 307 310 308 313 321 321 326 328 328 328 328
316 316 316 316 315 315 315 315 315 316 316 316 317 317 317 317 317 317 317 316 317 316 316 319 322 319 310 302 321 323 331 331 325 316 312 310 309 312 313 313 315 321 326 327 328 327 330
316 315 315 315 315 315 315 315 315 316 316 316 317 316 316 316 316 316 316 316 316 315 316 320 323 317 309 304 320 322 328 321 320 315 310 312 313 310 315 312 318 319 318 326 326 327 326
315 315 315 315 315 316 315 315 316 316 316 316 316 316 316 316 315 315 315 314 315 316 317 322 322 316 304 319 319 318 320 322 319 316 313 313 314 310 309 317 317 314 315 312 320 325 327
314 315 316 316 316 316 316 316 316 316 316 316 315 315 315 315 314 314 313 313 319 320 320 321 316 311 306 326 317 320 320 314 319 318 316 318 312 308 309 309 308 311 307 309 314 323 325
315 315 316 315 315 316 316 316 316 315 315 315 314 314 314 313 313 312 312 314 320 319 320 320 319 308 314 310 317 321 322 321 314 315 316 313 309 305 308 307 300 304 306 309 312 319 322
314 314 315 315 315 315 315 315 315 315 315 315 314 313 313 312 312 311 308 304 300 303 302 297 299 305 303 317 315 320 321 318 313 311 308 312 307 303 306 309 310 312 311 309 315 321 320
314 315 315 315 316 315 315 315 315 315 314 314 314 313 312 312 311 310 308 301 300 301 294 302 302 303 305 307 303 310 318 312 307 303 309 308 304 310 312 312 310 310 308 308 313 317 318
314 315 315 315 315 315 315 315 314 314 314 313 313 312 312 311 310 309 306 302 306 304 294 298 301 301 301 303 301 304 310 311 306 303 307 305 308 314 312 310 309 308 307 308 309 313 317
315 315 315 315 315 314 314 314 314 314 313 312 312 312 311 309 306 305 305 306 307 305 289 296 299 305 305 303 299 309 311 310 307 302 305 307 312 311 309 308 309 303 311 312 312 310 303
315 315 315 315 315 314 314 314 314 313 312 312 312 311 310 308 303 303 307 308 307 302 282 303 301 310 305 300 302 303 309 308 303 305 305 304 309 308 307 308 310 305 311 310 310 308 308
314 314 315 315 315 315 314 313 313 312 312 311 311 310 309 308 306 308 309 307 303 288 285 295 300 298 297 299 302 307 306 309 309 306 307 308 315 312 310 312 312 313 309 307 307 306 299
313 314 315 315 315 314 313 313 313 312 311 310 309 307 307 309 302 309 309 301 288 284 297 293 292 295 294 294 297 299 298 299 297 296 298 305 308 312 315 308 311 309 302 294 293 295 296
314 315 315 314 314 314 314 313 313 312 311 309 307 306 310 312 311 310 302 293 284 292 291 295 293 293 290 293 292 294 294 294 303 302 297 297 296 308 314 309 305 305 303 293 287 289 295
315 315 315 314 314 314 314 313 313 312 311 309 307 308 309 312 313 306 297 287 288 291 293 291 291 288 287 291 292 292 292 292 298 299 297 296 298 311 313 314 310 302 300 302 292 295 292
315 315 315 314 314 314 314 313 313 312 311 308 304 305 307 313 309 304 293 290 292 296 295 293 286 289 285 287 289 289 290 296 295 302 303 299 294 304 310 314 312 305 305 297 297 287 289
314 314 314 314 314 314 314 314 313 312 310 309 304 302 309 312 309 299 289 292 295 297 296 291 289 287 288 287 289 288 289 295 300 299 300 299 295 299 304 306 305 303 300 301 296 294 289
314 314 314 314 314 313 314 314 313 311 309 305 301 294 308 311 297 297 292 294 296 295 296 294 294 291 289 289 287 288 288 293 301 299 293 299 295 294 298 305 310 307 303 300 296 291 293
314 314 314 313 313 314 314 313 312 311 310 304 296 298 308 305 291 290 294 294 296 294 293 293 291 293 292 289 285 289 291 298 300 297 294 297 292 289 295 300 304 304 304 304 299 297 293
313 313 313 313 313 313 314 313 312 311 310 305 298 292 297 300 299 292 290 291 291 297 295 294 292 293 291 288 290 288 290 296 298 298 305 304 294 292 289 296 300 300 304 304 301 295 295
313 313 313 313 313 313 313 313 312 311 310 305 299 293 295 288 290 291 292 291 290 290 295 296 293 292 290 286 288 288 292 292 295 301 299 295 290 295 298 303 304 304 305 304 301 301 298
313 313 313 313 313 313 313 313 312 312 310 302 295 295 295 291 293 291 291 289 289 292 292 290 290 291 290 286 288 284 291 290 290 295 293 294 289 295 297 303 304 304 307 306 305 304 303
313 313 313 313 313 313 313 313 312 312 309 302 303 301 295 291 290 289 289 291 291 293 294 294 293 292 289 291 294 293 294 294 292 292 290 290 290 290 291 301 301 297 304 306 305 307 305
313 313 313 313 313 313 313 313 312 312 311 307 306 299 291 286 289 289 291 292 291 292 291 294 295 292 295 299 298 296 294 293 293 293 295 290 290 291 290 297 289 301 311 311 307 308 309
312 313 313 313 312 311 311 312 312 312 312 308 308 298 292 287 290 290 291 292 293 295 294 294 296 299 299 296 289 286 287 289 292 294 293 295 292 288 288 293 298 305 306 305 304 308 313
312 312 312 312 311 311 312 313 313 313 312 310 308 303 296 289 289 293 291 292 289 291 292 294 300 301 298 291 289 283 282 287 288 291 294 295 295 290 292 289 291 297 304 309 310 301 313
312 311 311 310 311 312 312 313 313 313 313 311 307 305 298 290 293 294 290 291 294 293 289 293 294 294 299 291 286 284 285 292 286 286 288 289 291 288 290 290 296 300 304 313 300 301 310
311 311 310 310 311 311 312 312 313 313 313 310 307 307 299 293 295 298 298 295 295 294 289 294 293 294 293 288 288 287 287 289 289 291 289 289 288 289 290 290 288 303 303 297 304 310 308
311 311 311 311 311 311 312 312 312 313 313 312 305 308 307 297 297 302 302 303 302 300 296 296 293 293 295 290 290 290 287 290 288 285 294 287 291 288 291 288 299 302 302 305 305 304 308

GFSGBSN_sfc_thetae_060.txt.gz
Theta_e
316 316 316 316 316 316 316 316 316 316 316 316 316 317 317 317 317 317 317 317 316 316 317 317 319 320 313 305 304 319 348 347 330 324 315 309 305 302 302 306 310 317 322 328 330 328 327
315 315 316 316 315 315 315 315 316 315 316 316 316 316 316 316 317 317 317 316 316 316 316 317 320 320 308 299 314 318 329 332 324 318 314 310 305 306 305 307 308 316 318 326 327 323 326
315 315 315 315 315 315 315 315 315 315 315 316 316 316 316 316 316 316 316 315 316 317 318 316 321 317 308 302 313 314 327 322 323 317 310 312 310 307 307 306 312 312 309 318 326 323 326
315 315 315 315 315 314 315 315 315 315 316 316 316 316 316 316 315 315 314 314 315 320 319 317 323 315 302 316 316 314 314 319 323 317 309 312 310 305 303 306 306 308 308 304 319 323 328
315 315 315 315 314 315 315 315 315 316 316 315 315 315 315 315 314 314 313 313 317 319 320 322 314 308 302 321 315 315 316 318 315 311 310 315 308 302 303 299 296 302 299 304 310 323 325
315 315 315 314 314 315 315 315 315 315 315 314 314 314 314 314 313 312 312 314 315 320 320 321 318 305 307 306 309 313 317 318 313 310 308 306 302 296 297 295 291 297 301 304 308 320 324
315 315 315 314 314 315 315 315 315 315 315 314 314 313 313 312 312 311 308 300 296 293 299 293 295 308 304 306 308 310 316 314 311 307 301 304 298 295 297 299 301 306 305 305 310 321 322
315 315 315 315 315 315 315 315 314 314 314 314 314 313 313 312 311 310 304 295 294 297 291 299 300 299 302 301 298 303 309 309 307 301 304 303 299 303 306 306 305 305 304 306 311 315 317
314 314 315 315 315 315 314 314 314 314 313 313 313 312 311 310 310 304 300 300 302 295 288 295 299 298 298 299 297 299 303 304 305 300 301 301 305 311 309 306 305 304 303 305 305 311 319
314 315 315 315 315 315 314 314 314 313 313 312 312 312 310 309 300 300 301 304 306 298 285 293 296 301 302 300 296 305 305 304 304 302 300 301 308 308 307 306 306 300 309 309 308 306 302
315 315 315 315 315 315 314 314 314 313 312 312 312 311 309 308 299 299 303 303 305 296 279 298 296 303 300 296 299 300 306 302 299 302 300 299 304 306 305 307 309 304 310 308 307 302 300
315 315 315 315 315 314 314 313 313 313 312 311 311 310 309 303 300 303 304 305 296 286 282 292 296 294 293 294 295 299 299 302 304 300 303 302 307 308 308 311 311 311 305 304 301 298 293
314 314 315 315 315 314 314 313 313 312 312 311 309 307 307 307 297 302 303 294 284 280 293 289 288 291 289 289 292 294 294 293 293 288 291 297 301 306 309 305 309 307 297 292 289 291 291
314 315 315 315 314 314 314 314 313 312 311 310 307 306 306 308 305 304 296 289 280 290 287 291 290 290 287 290 288 291 290 289 297 296 291 291 291 301 308 306 303 302 301 293 287 286 293
314 315 315 314 314 314 314 313 313 312 311 309 307 302 301 305 307 301 291 282 282 287 291 289 288 285 284 290 289 290 288 289 294 296 289 288 292 305 308 309 309 301 298 303 291 289 289
315 315 314 314 314 314 314 313 313 312 311 309 301 297 300 308 307 296 287 285 287 293 292 290 283 286 282 285 286 285 287 292 294 298 299 292 286 299 303 307 310 307 303 294 290 290 286
314 314 314 314 313 313 313 313 313 312 311 309 294 293 301 307 301 291 283 284 292 296 295 289 286 284 284 285 285 284 286 292 296 296 298 293 289 293 299 298 299 304 302 295 296 290 290
314 314 314 313 313 313 314 313 312 311 309 304 293 287 300 305 290 289 286 290 295 294 296 291 291 289 286 287 284 283 285 290 298 298 292 296 292 286 292 301 303 305 301 299 294 289 289
314 314 313 313 313 313 313 313 312 310 309 303 291 290 300 298 284 284 289 291 295 293 293 292 290 291 290 285 282 285 289 296 298 296 293 296 292 286 290 294 299 297 299 296 293 293 290
314 313 313 313 313 313 313 313 311 310 310 299 291 285 290 291 290 285 286 288 289 296 294 295 293 293 289 285 285 285 288 294 298 296 301 299 291 289 284 288 294 293 297 300 296 292 291
312 312 313 313 313 314 313 312 312 310 310 299 291 286 289 283 287 288 289 289 288 288 295 294 291 291 288 282 284 284 288 290 294 298 298 295 286 287 289 292 295 296 297 301 297 298 295
313 313 313 314 313 313 313 313 312 311 309 296 289 292 290 291 291 289 288 286 289 290 290 289 289 290 288 283 285 283 287 285 287 294 292 292 286 287 284 293 297 297 302 303 303 301 298
313 313 313 313 313 313 312 312 312 311 307 295 295 296 295 291 290 288 285 289 289 292 292 294 292 290 288 290 293 291 292 291 290 291 289 288 286 284 282 295 297 295 298 303 303 302 300
313 313 313 312 311 311 312 312 312 312 310 305 299 299 292 287 289 290 290 291 291 292 289 293 294 291 294 298 296 292 289 290 292 292 293 288 287 284 283 292 289 298 303 303 306 305 306
312 313 312 311 312 312 312 313 313 313 312 306 305 298 293 287 290 291 291 292 293 292 291 293 295 297 298 295 284 282 282 285 289 291 292 293 289 284 282 289 297 298 299 299 297 301 305
312 312 311 311 311 311 312 312 313 313 312 308 306 304 296 289 289 293 291 292 290 290 290 291 296 296 295 286 284 280 279 285 287 291 294 292 292 286 285 286 289 292 300 306 308 296 306
311 310 311 310 311 311 312 312 313 313 313 309 306 304 298 291 294 294 291 291 294 293 289 289 292 291 295 289 286 284 283 289 285 286 285 286 287 285 287 288 294 296 301 305 294 296 305
310 310 310 310 311 311 312 312 313 313 313 310 306 306 300 293 295 297 298 295 295 294 289 291 287 290 291 286 286 286 285 287 287 288 287 287 287 286 286 286 287 298 299 294 297 301 302
309 310 310 310 311 311 312 313 313 313 313 312 304 308 306 297 297 301 301 302 301 299 295 295 291 289 290 285 286 287 286 288 288 283 293 286 289 287 287 288 295 296 299 304 303 300 301

GFSGBSN_sfc_thetae_063.txt.gz
Theta_e
316 316 316 315 315 315 315 316 316 315 315 316 315 316 316 316 316 316 317 317 316 316 316 317 317 320 311 302 301 313 344 333 331 318 312 307 304 303 301 303 308 312 317 323 328 326 326
315 316 316 315 315 315 315 315 315 315 315 315 316 316 316 317 317 317 317 316 316 316 317 317 317 319 306 295 308 316 332 326 324 315 308 307 304 304 302 303 307 312 314 316 321 324 326
315 315 315 315 315 315 315 315 315 315 315 316 316 316 316 316 316 316 316 316 315 317 321 319 318 315 306 301 312 313 318 320 322 314 309 310 307 305 303 302 308 308 305 309 313 324 327
315 315 315 315 314 314 314 314 315 315 315 316 316 316 315 315 315 315 314 314 315 320 318 319 321 314 302 315 315 316 312 317 321 316 308 311 308 303 301 303 303 303 303 298 307 323 327
315 315 315 315 314 314 314 314 314 315 315 315 315 315 314 314 314 313 313 314 317 321 322 322 312 306 301 319 312 314 313 316 318 312 309 315 306 299 300 297 294 296 295 300 305 323 324
315 315 315 315 314 315 315 315 315 315 315 314 314 313 313 313 312 312 312 314 315 320 320 319 317 302 304 303 303 305 310 317 311 309 307 303 299 294 292 292 291 291 297 299 303 313 322
314 315 315 314 314 315 315 315 315 315 314 314 313 313 313 312 311 310 308 296 293 291 293 291 294 301 299 301 304 305 309 313 309 303 296 299 293 292 295 296 298 301 302 301 306 314 319
314 314 314 314 314 315 315 314 314 314 314 314 313 312 312 311 310 310 303 295 296 298 288 297 298 297 299 298 296 300 305 307 304 299 301 297 293 298 300 299 298 297 297 299 306 319 317
314 314 315 315 315 315 315 314 314 314 313 313 312 312 311 310 309 302 298 297 300 296 287 293 297 297 297 297 295 297 301 302 303 300 301 298 300 304 302 299 298 297 297 299 302 315 319
315 315 315 315 315 315 314 314 314 313 313 312 312 311 310 309 299 298 298 300 300 296 284 291 293 298 298 297 294 302 302 299 300 301 300 299 306 304 302 301 302 295 304 305 305 304 302
314 315 315 315 315 314 314 314 313 313 312 312 312 311 309 308 297 296 300 301 300 294 278 295 293 301 296 292 294 297 302 300 295 299 299 298 300 301 302 303 307 301 307 305 304 302 300
314 314 314 314 314 314 314 313 313 313 312 312 311 310 309 303 298 301 302 299 295 285 279 290 294 292 291 291 293 297 299 304 303 299 298 299 306 303 304 308 308 310 304 302 299 301 295
314 314 314 314 314 314 313 313 313 312 312 311 309 308 306 306 298 302 300 293 283 279 291 287 287 289 287 287 290 293 296 294 292 289 289 296 298 302 305 301 306 306 295 290 288 290 291
314 314 315 314 314 313 313 313 313 312 311 310 307 306 304 307 305 303 295 289 278 287 285 289 288 287 286 288 287 290 289 289 295 293 289 287 289 297 303 301 299 301 300 290 284 285 292
314 314 314 314 313 313 313 313 312 312 311 309 307 299 300 301 305 297 291 280 281 286 289 288 286 283 283 288 288 287 287 288 294 293 287 287 289 299 301 302 303 299 297 301 290 289 287
313 313 314 314 313 313 313 313 312 312 311 309 299 294 297 305 303 294 287 284 285 292 292 288 282 285 281 284 284 283 285 292 293 296 294 291 285 295 298 301 303 302 301 294 290 289 285
313 313 313 313 313 313 313 313 312 312 310 308 293 291 299 304 298 291 282 283 290 295 295 288 285 283 283 283 283 282 284 290 295 294 294 289 288 290 295 294 294 296 298 294 296 291 291
313 314 313 313 313 313 313 313 312 310 309 301 291 287 299 299 289 285 284 288 293 293 295 292 290 287 285 286 283 282 284 288 298 296 290 292 288 286 289 298 300 298 295 299 293 289 288
313 313 313 313 313 313 313 313 312 310 309 303 289 288 298 296 282 282 287 290 292 291 292 292 291 292 289 285 281 284 288 295 297 294 291 290 290 283 287 290 294 291 294 294 294 291 290
313 314 314 313 313 313 313 313 311 310 309 297 290 285 289 290 288 284 285 286 288 295 294 294 292 292 290 287 287 284 286 294 296 295 302 297 287 284 283 286 289 287 290 291 290 288 297
313 313 313 313 313 313 313 312 311 310 309 297 289 285 287 282 284 284 286 286 288 288 294 294 290 289 288 284 284 283 287 287 293 299 295 291 285 288 288 289 290 289 289 291 290 294 290
314 314 313 312 312 312 312 312 311 310 308 295 288 287 288 290 290 288 285 284 288 289 289 288 288 290 290 283 284 283 284 283 284 290 288 288 285 286 285 290 290 288 291 294 296 298 298
313 313 313 311 312 312 312 312 312 311 305 294 294 296 295 291 289 288 286 289 289 291 293 294 291 289 287 289 291 290 289 287 286 287 285 286 287 284 280 288 288 290 295 300 300 301 299
313 313 311 312 312 312 312 312 312 312 309 303 300 299 292 288 289 290 291 291 291 292 290 292 293 288 293 296 295 292 290 289 289 287 288 284 287 287 280 285 283 295 300 301 300 300 302
313 311 311 311 311 311 312 312 312 313 312 306 304 299 293 287 291 291 292 292 293 293 292 292 294 295 296 292 284 280 280 281 285 288 288 291 288 284 281 283 291 296 296 295 296 295 298
312 311 310 310 311 311 312 312 313 313 312 308 306 304 296 290 290 294 292 292 290 290 291 291 296 294 294 289 284 280 279 284 284 285 292 292 292 287 285 281 289 292 297 299 301 292 299
310 310 310 310 311 311 312 312 312 313 312 309 305 304 298 292 294 294 291 291 294 292 290 291 290 290 294 288 284 284 283 285 283 282 283 285 287 284 284 285 291 296 296 301 293 291 299
310 310 310 310 311 312 312 313 313 313 313 309 305 305 300 294 295 297 297 294 295 294 289 292 287 288 287 284 285 284 284 286 285 287 286 285 285 285 286 286 287 295 296 293 296 300 299
310 310 310 311 311 312 312 313 313 313 313 312 304 307 306 298 297 301 302 303 301 300 295 296 292 286 292 285 285 286 285 287 285 283 291 285 287 286 286 286 294 296 295 299 301 297 297

GFSGBSN_sfc_thetae_066.txt.gz
Theta_e
316 316 316 316 315 315 315 316 316 316 316 316 316 316 316 316 316 316 317 317 316 316 317 317 317 317 309 299 300 311 335 330 331 322 323 311 316 303 304 306 308 315 316 322 328 327 326
316 315 315 315 315 315 315 315 316 315 315 315 316 316 316 316 316 317 317 316 315 316 318 319 317 318 304 292 307 319 326 325 325 315 315 308 313 306 302 302 306 310 314 316 318 318 322
315 315 315 315 314 314 315 315 315 315 315 315 316 316 315 315 316 315 315 315 315 317 320 320 319 314 304 299 312 314 324 321 321 311 309 307 308 306 302 299 306 307 303 305 308 314 323
315 315 315 315 314 314 315 314 314 315 315 315 315 315 315 315 315 315 314 313 315 318 319 320 321 311 301 314 313 315 310 318 321 312 306 308 307 302 300 302 301 301 301 297 306 309 326
315 315 315 315 315 315 315 314 314 315 315 315 315 314 314 314 313 313 312 313 317 321 321 322 310 304 299 318 306 306 311 314 317 313 310 314 304 298 298 295 292 293 293 297 302 313 323
314 314 315 315 315 314 315 315 315 315 315 314 314 313 313 313 312 311 312 314 324 320 320 319 316 299 300 298 301 303 304 318 313 311 307 302 298 293 291 291 287 290 292 296 302 309 321
315 315 315 315 314 315 315 315 315 314 314 314 314 313 312 312 311 310 307 295 293 292 294 289 292 295 297 300 302 302 310 310 306 303 295 297 292 292 294 294 296 297 299 300 305 309 317
315 315 315 315 314 315 315 315 314 314 314 314 313 312 312 311 311 310 300 295 296 297 289 294 295 296 298 295 295 299 304 306 302 296 297 294 291 295 297 296 296 296 294 294 302 310 313
315 315 315 315 315 315 315 314 314 313 313 313 312 312 311 310 310 301 297 295 299 292 286 292 295 296 296 295 293 296 299 297 301 297 297 292 295 300 297 295 294 293 293 294 299 309 317
315 315 315 315 315 314 314 314 313 313 312 312 312 312 310 309 299 297 294 299 300 296 283 289 291 296 296 295 292 300 300 297 297 299 299 298 302 299 297 295 295 288 298 299 301 300 301
314 315 315 315 314 314 314 313 313 313 312 312 312 311 309 307 296 296 299 300 297 293 276 292 292 299 295 291 293 295 305 300 294 297 298 296 298 299 297 297 299 294 302 299 301 299 300
314 314 314 314 314 314 313 313 313 312 312 312 311 310 309 303 297 301 301 298 293 284 277 288 292 290 290 290 292 296 300 302 302 298 296 297 302 300 301 304 304 306 301 299 298 299 294
314 313 313 313 313 313 313 313 312 312 311 311 309 308 306 305 297 305 299 292 282 277 289 286 285 288 286 286 289 292 295 292 290 287 288 294 297 299 302 298 303 303 295 288 286 290 291
313 313 314 314 313 313 313 313 312 312 311 310 307 306 302 305 303 300 293 287 277 286 284 288 287 286 285 287 286 289 288 288 294 291 287 286 287 295 300 297 296 298 296 289 283 283 291
313 314 314 313 313 313 313 313 312 312 311 309 306 297 297 300 303 294 290 280 279 283 289 287 286 282 282 287 286 286 285 289 292 291 285 286 288 297 300 300 298 295 295 299 290 288 286
314 313 313 313 313 313 313 313 312 312 311 309 297 291 295 303 298 293 286 282 285 292 292 288 280 284 280 283 283 281 284 291 292 294 292 290 281 293 297 300 300 296 299 292 288 287 285
314 313 313 314 313 313 313 313 312 312 310 307 292 291 299 302 297 291 282 282 288 294 294 288 284 282 282 282 282 281 283 290 294 293 293 286 285 286 294 292 292 293 292 292 294 292 290
314 314 314 314 313 313 313 313 312 310 308 303 290 287 299 297 287 284 283 286 293 291 294 291 289 286 284 284 282 281 283 287 296 293 288 290 284 283 287 296 298 295 293 290 288 288 288
314 314 314 314 313 313 313 312 311 309 308 301 289 287 297 294 281 281 285 288 291 290 291 291 290 290 289 284 281 283 286 294 297 292 289 289 284 279 283 287 292 290 291 287 287 285 289
314 314 314 313 313 313 313 312 310 309 309 296 288 285 288 288 286 282 286 284 286 294 292 292 291 290 288 286 287 283 285 292 295 294 300 295 282 281 279 283 288 287 290 290 286 284 286
313 313 313 313 312 312 312 312 311 309 308 296 288 284 286 282 285 289 284 285 286 287 291 292 289 290 288 284 284 283 286 287 291 296 294 288 280 283 286 289 289 289 289 291 288 288 286
313 313 313 311 312 312 312 313 312 310 306 293 287 287 289 287 287 289 285 286 287 289 289 288 286 290 289 286 286 283 285 283 284 290 287 288 279 282 282 288 289 287 290 293 292 292 291
313 312 312 312 312 312 312 312 312 311 304 292 294 296 295 292 290 288 288 289 289 291 293 293 292 289 286 288 291 291 291 288 286 286 285 286 284 283 278 286 286 285 290 294 295 295 297
313 311 311 311 311 311 312 312 312 312 307 301 300 299 293 288 290 290 291 292 291 291 290 293 293 291 292 294 293 291 289 289 289 288 288 285 285 284 281 282 279 291 299 300 295 295 296
312 311 311 310 311 311 312 312 312 312 311 305 303 299 294 288 291 292 293 292 292 292 291 291 292 293 295 291 284 280 279 279 284 288 285 287 286 283 280 280 287 293 295 293 292 293 297
311 310 310 311 311 312 312 312 313 312 312 308 305 304 297 291 291 294 292 292 289 288 288 290 294 293 294 290 287 280 278 283 282 283 285 287 287 284 286 278 283 293 295 297 299 290 298
310 310 310 311 311 312 312 313 313 312 312 308 304 305 299 292 295 295 292 291 294 292 289 288 291 289 289 284 284 282 282 285 281 281 281 283 285 281 283 282 287 292 294 297 291 290 298
310 310 310 311 312 312 313 313 313 313 313 308 303 305 301 295 293 296 297 295 295 294 289 289 286 286 287 284 283 284 284 286 284 285 285 284 283 283 285 281 282 293 293 290 292 296 298
310 310 310 311 312 313 313 314 313 313 313 310 304 307 306 298 296 298 302 303 302 301 296 295 291 291 291 285 286 288 285 286 284 281 290 283 286 286 285 285 293 295 294 298 299 297 298

GFSGBSN_sfc_thetae_069.txt.gz
Theta_e
316 316 316 316 315 316 316 316 316 316 316 316 315 316 316 315 316 316 316 316 316 317 317 318 318 317 314 304 303 322 333 333 330 330 327 321 320 314 308 312 316 320 323 325 330 329 328
316 316 316 316 315 315 316 315 315 315 315 315 316 316 316 316 316 316 315 315 315 316 318 320 318 319 310 297 314 326 326 328 326 329 323 322 318 317 312 311 311 315 319 321 323 320 325
315 315 315 316 316 315 315 315 315 315 315 315 316 316 315 315 315 315 315 314 315 317 320 321 319 315 307 303 315 318 327 326 332 327 319 321 323 314 311 307 312 315 310 312 314 317 319
315 315 315 316 315 315 315 315 315 315 315 315 315 315 315 315 315 314 313 313 316 318 320 320 321 315 305 315 319 319 322 323 328 319 320 315 317 313 308 309 306 305 307 307 315 317 319
315 315 315 315 315 315 315 315 315 315 315 315 315 315 314 314 314 314 313 315 321 321 321 321 316 311 303 320 308 309 316 318 321 318 316 317 313 309 307 303 301 304 298 304 310 316 321
315 315 315 315 315 315 315 315 315 315 315 314 314 314 313 313 313 312 312 316 324 322 321 321 317 305 305 301 304 306 309 321 315 312 309 308 308 303 303 301 294 298 298 304 308 315 320
315 315 315 315 314 315 315 315 314 314 314 314 314 313 313 312 312 311 310 306 302 301 302 297 298 298 301 304 305 304 315 316 314 308 301 305 300 297 300 302 302 303 302 302 310 317 316
315 315 315 315 314 315 315 314 314 314 314 314 313 313 313 312 311 311 306 303 302 303 296 299 298 299 301 302 299 303 311 310 307 301 302 299 296 302 303 301 301 301 301 303 309 311 315
315 315 314 315 315 315 314 314 313 313 313 313 313 312 312 311 310 306 304 303 307 302 295 297 300 300 300 302 299 299 307 305 307 302 300 299 301 303 300 299 299 300 299 302 303 309 314
315 315 315 315 315 314 314 313 313 313 313 313 312 312 311 309 306 303 302 305 307 303 293 294 297 299 301 299 297 303 308 303 303 304 302 302 305 301 300 298 300 297 302 302 302 302 304
314 315 315 314 314 314 313 313 313 313 313 313 312 312 310 308 305 303 305 307 304 299 283 294 296 303 300 297 298 299 309 305 299 305 304 302 303 301 299 299 301 298 302 300 301 301 303
314 314 313 314 314 314 313 313 313 313 313 312 312 310 309 306 305 306 307 304 301 291 282 291 295 293 295 295 297 300 303 306 305 301 301 305 306 307 304 305 303 304 303 301 301 300 295
314 314 313 313 313 313 313 313 313 313 312 311 310 308 307 308 302 307 304 301 291 285 292 289 290 292 292 291 293 296 297 296 296 294 295 299 301 304 307 303 306 304 300 295 292 292 292
313 314 314 314 313 314 313 313 313 312 312 310 307 305 305 308 307 305 303 297 285 288 288 293 291 291 289 291 291 293 293 293 295 295 296 294 292 300 304 303 302 302 303 295 290 291 293
314 314 314 314 314 314 313 313 312 312 311 309 306 303 305 306 305 302 301 289 287 289 292 291 291 287 287 290 291 291 292 293 293 294 292 293 293 299 302 304 305 302 300 305 298 299 296
314 314 314 314 314 314 313 313 312 311 310 309 302 299 303 306 304 302 295 287 291 295 295 293 286 288 285 288 288 289 289 296 292 296 299 294 287 295 299 302 304 304 307 299 300 291 291
314 314 315 314 314 313 313 313 312 310 309 308 300 300 304 304 305 299 290 289 292 296 296 292 289 288 288 287 288 288 289 294 296 294 298 294 289 290 295 298 299 300 299 301 302 300 294
314 314 314 314 313 313 313 312 311 309 308 305 298 296 304 303 295 292 290 290 293 294 297 295 294 291 288 289 287 287 287 290 298 296 290 295 293 286 289 298 300 298 299 301 296 297 300
314 314 314 313 313 312 313 312 311 309 307 303 294 295 303 303 289 289 291 291 293 293 294 293 292 293 293 289 286 288 290 296 298 295 293 296 291 284 286 294 298 296 296 297 296 297 298
314 313 313 313 313 312 313 312 310 309 307 303 297 293 296 296 294 289 288 289 289 296 294 294 292 294 291 289 291 287 289 293 295 296 299 299 291 288 285 288 291 291 293 295 295 295 297
313 312 312 312 312 312 313 312 311 310 306 303 296 291 292 289 291 291 290 289 288 288 293 294 291 290 289 286 287 288 290 291 293 298 298 296 287 289 289 290 290 289 290 292 293 296 295
312 312 312 312 311 312 312 312 311 310 305 301 296 295 295 292 292 291 290 287 288 290 291 289 289 291 291 288 289 287 290 290 289 294 294 294 287 289 286 289 291 289 291 292 293 295 296
312 311 312 312 312 312 312 312 312 310 305 301 301 301 298 292 291 290 290 290 290 292 293 294 293 291 290 292 294 295 296 295 294 291 292 291 289 286 282 289 290 287 292 293 295 300 301
312 311 311 311 312 312 312 312 312 312 309 306 305 302 295 290 292 290 292 293 292 292 290 293 295 292 295 299 298 297 296 295 294 293 294 290 287 288 283 286 280 295 302 302 299 299 300
311 311 311 311 312 312 312 312 313 312 311 309 308 303 296 290 293 293 293 293 293 293 291 293 295 298 300 297 290 287 287 287 290 293 292 293 290 285 281 282 288 293 294 294 295 295 300
311 311 311 311 312 312 312 313 313 312 312 310 309 308 300 293 293 295 293 293 290 290 290 293 299 300 298 294 288 282 282 284 284 285 293 292 293 288 285 280 281 290 294 298 298 294 301
310 310 311 311 312 312 313 313 313 312 312 311 308 309 301 295 299 297 293 291 294 292 289 292 294 294 296 289 285 283 283 287 283 282 282 284 286 282 284 282 287 292 294 297 290 293 298
310 310 310 311 312 313 313 314 313 313 313 311 307 309 303 299 300 299 299 295 296 294 289 294 293 293 291 287 285 285 285 287 285 285 285 284 283 282 284 282 281 294 293 289 292 299 299
309 310 310 311 312 313 313 313 313 313 313 311 305 308 308 300 300 304 304 304 303 301 297 297 293 293 293 289 289 288 286 288 286 282 289 285 287 286 287 289 295 296 295 297 299 299 300

GFSGBSN_sfc_thetae_072.txt.gz
Theta_e
317 317 317 317 316 316 316 316 316 316 316 316 316 316 316 316 316 317 317 317 317 317 318 319 319 318 317 310 307 326 334 342 329 329 331 328 324 320 313 316 318 320 324 329 334 335 332
316 316 316 317 316 316 316 316 316 316 316 315 316 317 317 317 317 316 316 316 316 316 318 320 320 319 315 303 318 324 328 329 324 323 328 325 322 320 314 313 314 315 319 324 328 330 330
316 316 316 316 316 316 315 315 315 315 315 316 316 316 316 316 315 316 316 315 316 318 321 322 321 319 311 307 316 321 327 325 329 325 323 323 322 317 314 311 315 315 312 316 319 327 325
316 316 316 316 316 315 315 315 315 316 316 316 316 316 316 316 315 315 314 315 319 320 322 321 322 320 309 318 322 320 326 326 329 330 325 324 322 319 313 313 309 308 310 308 317 324 326
316 316 316 316 316 316 316 315 315 315 315 315 315 315 315 315 315 314 313 315 321 322 322 323 321 316 306 318 310 313 320 321 329 322 325 321 319 315 312 307 304 306 302 305 317 326 326
316 316 316 316 315 315 316 315 315 315 315 315 314 314 315 314 314 313 312 315 323 322 323 323 319 311 307 304 308 309 313 322 322 320 314 314 312 308 308 305 299 302 302 306 313 321 326
316 316 315 315 315 315 315 315 315 315 315 315 314 314 314 313 313 312 313 314 313 307 309 303 303 303 305 309 311 311 318 320 318 317 307 308 304 301 305 307 307 306 305 305 311 322 323
316 315 315 315 315 315 315 315 314 314 314 315 314 314 313 312 311 312 312 308 306 308 302 305 304 304 306 307 305 309 321 312 311 306 308 304 301 307 308 307 305 305 304 305 311 319 321
315 315 315 315 315 315 314 314 314 314 314 314 314 313 312 311 311 312 310 308 312 311 302 302 304 304 304 306 302 304 313 313 309 306 306 303 305 308 306 304 302 304 303 305 306 314 319
315 315 315 315 315 315 314 314 314 314 314 313 313 313 311 309 309 312 310 313 313 312 298 298 300 302 305 304 301 309 312 312 310 305 306 306 310 306 304 302 304 301 306 304 306 307 307
315 315 315 315 314 314 314 314 314 314 313 313 313 312 310 308 312 310 311 314 312 308 289 297 300 307 305 302 302 303 312 310 305 308 308 304 306 306 303 304 306 303 307 305 304 305 308
315 315 315 315 315 315 314 314 314 313 313 313 312 311 309 311 315 312 314 312 307 296 287 295 299 297 299 300 301 304 305 310 309 305 310 308 312 310 308 309 308 307 304 304 304 302 298
315 314 314 314 315 315 314 313 313 313 312 311 310 308 309 313 309 313 313 307 296 291 296 293 294 297 297 296 298 299 300 300 301 298 299 305 307 310 310 306 308 306 302 297 294 294 294
315 315 315 315 315 314 314 313 313 312 311 310 308 306 306 311 314 312 311 301 291 293 294 297 296 296 293 296 296 296 297 297 299 299 300 298 296 306 309 307 306 305 305 298 293 294 296
315 315 315 315 314 314 313 313 312 311 310 309 307 313 313 313 312 312 305 296 294 294 296 295 296 293 293 294 295 295 295 296 297 299 295 297 297 305 306 310 309 306 301 308 302 304 300
316 315 315 315 314 313 313 313 312 311 310 309 309 311 310 313 313 309 303 292 296 298 298 297 292 294 291 293 293 294 294 298 296 298 300 297 292 302 306 307 308 307 311 301 303 295 295
315 314 315 314 314 313 313 313 312 311 310 309 309 306 310 313 312 308 299 295 296 300 299 296 293 293 293 292 293 293 293 297 298 297 300 298 294 296 299 302 302 304 303 306 306 303 298
315 315 314 313 313 313 313 313 312 310 308 309 308 304 310 313 304 302 296 296 293 297 300 298 297 295 293 293 293 292 291 294 299 298 294 298 295 291 294 304 305 304 305 305 300 301 304
314 314 313 313 313 313 313 312 311 309 308 309 305 304 311 311 298 296 297 296 297 296 296 295 295 296 297 293 290 292 293 297 299 297 295 299 293 289 292 296 300 300 304 305 306 306 303
314 313 313 313 313 313 313 312 311 310 308 309 306 302 303 303 302 297 296 294 293 298 296 296 295 297 294 293 296 292 292 295 298 298 300 299 294 291 289 292 296 295 299 301 303 300 302
313 312 312 313 312 312 313 312 311 310 308 308 305 299 299 295 296 297 297 293 292 292 296 297 294 293 293 290 291 291 294 294 296 298 299 298 291 294 294 294 293 293 293 295 298 301 300
312 312 312 312 312 312 312 313 312 311 308 310 304 303 301 297 297 296 294 292 291 293 293 291 289 292 292 289 291 290 292 293 293 297 296 298 291 292 290 293 293 291 294 295 296 299 301
312 312 312 312 312 313 313 313 313 311 309 308 308 306 304 294 296 295 294 293 292 294 296 297 294 294 292 293 297 298 298 298 297 295 295 295 292 290 287 292 291 288 293 295 297 300 301
312 312 312 312 312 313 313 313 313 312 310 311 309 309 301 292 297 296 295 295 294 294 291 295 296 295 298 303 302 301 300 298 298 297 298 293 293 291 287 290 282 294 305 304 301 300 303
311 311 311 312 312 313 313 313 313 312 311 312 312 306 303 295 299 297 296 295 295 295 293 295 296 301 303 300 293 290 290 292 294 296 296 297 291 289 285 286 290 292 297 296 295 299 306
311 311 311 312 312 313 313 314 313 312 311 313 311 311 305 300 296 299 296 295 291 292 292 294 301 304 301 297 292 285 285 288 287 290 297 296 294 289 288 283 282 292 295 298 298 292 303
311 311 311 312 313 313 313 314 313 312 311 315 312 315 310 300 303 302 296 293 296 294 293 295 298 298 300 294 289 288 286 289 285 284 285 289 289 286 287 285 289 297 298 299 288 292 301
310 311 311 312 312 313 314 314 314 313 312 313 309 316 309 305 304 304 302 300 300 297 292 297 297 298 295 289 288 290 287 289 286 288 286 286 283 285 286 284 282 299 299 291 294 298 301
310 310 311 311 312 313 313 313 314 314 313 312 310 314 315 306 306 309 308 308 305 303 298 301 297 296 298 291 292 290 288 289 287 285 290 286 291 289 290 290 299 299 299 301 301 298 299

GFSGBSN_sfc_thetae_075.txt.gz
Theta_e
318 318 318 318 317 318 317 317 317 317 317 316 317 317 317 317 317 318 318 318 317 318 318 319 321 320 319 316 312 324 337 340 335 325 331 329 326 325 318 320 322 320 325 328 336 336 335
317 317 317 317 317 316 317 316 316 316 316 317 317 317 317 317 317 317 317 317 317 318 319 320 322 320 320 309 319 322 328 336 326 324 329 330 326 327 320 317 317 320 322 326 331 333 334
317 317 317 317 317 316 316 315 315 315 316 316 317 317 317 317 317 317 316 316 319 320 322 323 323 322 316 312 318 322 328 327 325 326 327 330 328 324 319 314 318 318 314 318 323 328 329
317 317 317 317 316 316 315 315 315 316 316 316 316 317 317 317 317 316 315 315 320 322 322 323 323 324 313 318 322 321 327 326 328 327 329 330 327 321 319 317 312 311 313 310 318 321 326
317 317 316 316 316 316 316 316 316 316 316 316 316 316 316 316 316 315 314 315 323 322 322 323 324 322 310 317 315 316 326 323 326 329 328 327 323 317 317 310 307 308 304 308 313 320 324
317 316 316 316 316 316 316 315 315 315 315 316 315 315 315 315 314 313 313 314 324 323 324 325 322 314 310 307 312 314 318 323 325 321 322 318 315 311 312 309 301 303 304 308 310 319 323
316 316 316 315 315 316 315 315 315 315 315 315 315 315 314 314 313 312 313 318 318 315 315 306 307 307 307 312 315 313 317 322 325 318 311 315 308 305 309 311 309 309 307 306 312 322 322
316 316 316 315 316 316 315 315 315 315 315 315 315 314 314 313 312 311 314 311 309 311 306 309 307 308 309 312 308 313 321 314 314 311 313 309 304 310 311 311 309 308 306 307 310 315 322
316 316 316 316 316 316 315 315 315 315 315 314 314 314 313 312 311 311 314 311 316 314 306 307 308 306 307 310 306 308 317 314 310 309 310 307 308 311 309 308 306 307 306 306 307 313 318
316 316 316 316 316 315 315 315 315 314 314 314 314 313 312 310 309 317 314 316 316 315 302 302 304 306 308 308 304 311 315 316 311 306 309 308 312 308 307 306 308 304 309 308 307 307 307
317 316 316 316 316 315 315 315 314 314 314 313 313 312 310 308 316 314 314 318 316 312 292 301 303 310 308 305 306 307 313 312 307 309 308 305 308 307 306 307 309 306 310 307 307 306 308
316 316 316 316 316 315 315 314 314 313 313 312 312 311 310 316 318 316 318 317 312 298 291 298 302 301 302 303 304 306 308 311 312 307 309 309 312 310 310 311 311 311 308 307 307 305 298
316 316 316 316 315 315 314 313 313 313 312 311 310 308 309 316 313 318 318 312 298 293 301 297 298 300 300 300 301 302 303 304 302 299 300 305 308 311 312 308 311 310 306 298 296 297 296
316 316 316 315 315 314 313 313 313 312 311 310 308 306 313 316 319 317 314 305 294 298 298 301 299 300 297 299 301 300 300 299 304 302 299 299 298 307 312 309 307 307 306 299 294 295 298
316 316 316 315 314 313 313 313 313 312 311 310 307 316 317 318 318 316 309 299 299 300 300 298 300 297 298 298 298 298 299 300 302 303 297 298 299 309 311 312 311 307 303 309 303 305 301
316 315 315 314 314 314 313 313 313 312 311 309 313 315 315 318 318 313 305 297 300 302 301 301 296 298 296 298 296 298 299 302 299 301 303 301 296 306 308 311 311 308 312 302 303 297 296
315 315 315 314 314 313 314 313 312 312 310 309 313 310 315 318 317 310 302 301 300 303 302 299 298 297 298 296 297 297 298 300 301 301 302 301 298 299 304 304 304 305 304 307 307 304 299
314 315 314 314 314 313 314 313 312 310 308 311 313 308 316 317 307 308 302 301 296 301 303 301 301 299 297 297 296 297 296 299 302 302 298 302 298 295 298 304 307 306 306 306 302 302 304
314 314 314 314 314 314 314 313 312 310 309 311 310 309 315 315 302 301 302 300 301 300 300 299 298 299 300 297 293 297 297 301 301 300 298 302 296 292 294 298 302 302 305 307 307 308 305
314 313 313 314 314 314 314 313 311 310 310 310 311 306 308 309 308 303 300 298 297 300 299 300 299 300 298 296 298 294 295 299 300 300 302 301 297 294 292 295 299 298 300 305 306 301 303
313 312 313 314 314 314 314 313 312 311 310 311 310 303 305 300 302 302 301 299 296 296 300 300 297 296 295 293 294 293 296 297 298 301 300 299 293 296 297 298 298 297 298 301 303 305 301
313 313 313 313 314 314 314 314 313 312 310 313 309 308 307 303 302 301 297 297 295 295 297 294 295 295 296 293 294 293 295 296 294 298 297 298 293 295 293 297 297 295 297 298 299 301 302
312 312 312 313 313 313 314 314 314 312 310 313 312 312 308 298 300 301 298 297 295 297 297 298 296 296 295 297 299 301 300 300 299 296 295 296 295 292 289 294 295 291 296 297 298 301 301
312 312 312 313 313 314 314 314 314 313 311 315 312 311 304 299 301 298 296 296 295 296 296 298 299 298 300 305 304 303 301 300 299 299 299 294 294 293 289 292 283 296 302 303 301 301 303
312 312 312 313 313 314 314 314 313 313 312 316 317 311 308 301 303 300 297 297 297 298 297 298 299 303 305 302 296 294 295 294 295 297 298 298 294 290 286 287 292 294 300 300 299 300 309
312 312 312 313 313 314 314 314 313 312 312 316 314 316 311 306 301 302 299 299 295 297 298 298 304 307 304 299 295 289 287 290 290 293 300 298 298 292 289 285 283 294 300 303 304 295 308
312 311 312 312 313 314 314 314 313 312 313 314 315 317 311 306 307 305 301 300 301 300 298 301 301 301 303 295 291 290 289 291 285 286 289 292 293 290 289 287 291 299 302 302 292 295 305
311 311 311 312 313 314 314 314 314 313 313 315 315 319 312 309 308 307 305 301 300 301 298 302 299 300 297 292 293 293 291 292 287 289 289 289 289 289 290 286 284 301 301 295 302 306 304
310 311 311 311 312 313 313 313 314 314 313 313 316 320 318 311 310 313 311 311 308 307 306 303 300 299 298 294 296 296 292 294 290 286 294 288 289 287 292 292 299 304 302 305 306 303 303

GFSGBSN_sfc_thetae_078.txt.gz
Theta_e
319 319 318 318 318 319 317 317 317 318 317 317 317 317 317 318 318 318 318 318 318 319 320 320 320 322 318 317 314 330 343 340 330 319 318 327 325 324 319 321 323 321 323 325 330 330 336
318 318 318 318 318 318 317 316 316 316 317 317 317 318 318 318 318 318 318 318 317 320 321 321 321 321 315 311 320 322 326 335 324 318 321 330 326 327 323 320 317 321 321 322 327 331 335
318 318 318 317 317 317 316 315 315 316 316 317 317 318 318 318 317 317 317 316 317 322 324 324 323 321 317 314 320 321 324 329 328 320 320 331 330 325 324 317 319 317 315 317 322 326 329
318 318 317 317 317 317 316 316 315 316 316 317 317 317 317 317 317 316 316 315 318 324 324 323 325 321 318 318 321 319 324 325 328 323 323 331 331 324 322 322 315 311 312 308 316 320 327
317 317 317 317 317 317 317 316 316 316 316 316 316 316 316 316 316 315 314 315 318 325 325 324 323 323 314 318 315 318 325 322 325 323 327 330 327 320 316 313 307 309 303 307 311 320 320
317 317 317 316 316 317 316 316 316 316 316 316 316 316 315 315 315 314 313 314 321 324 325 325 324 315 314 308 313 315 320 324 322 322 320 320 318 312 312 309 300 303 303 305 308 315 318
317 317 316 316 316 317 316 316 316 316 316 316 316 315 315 314 313 312 313 317 316 318 319 311 308 308 308 313 316 313 315 318 322 320 313 317 310 305 309 309 310 308 306 305 309 315 315
317 316 316 316 317 317 316 316 316 316 316 316 315 314 314 313 312 311 312 312 310 311 305 310 309 309 311 313 309 314 318 315 316 310 311 311 306 311 311 311 309 309 305 305 309 312 314
317 317 317 317 317 317 316 316 315 315 315 314 314 313 313 312 311 312 314 313 317 315 304 308 309 308 308 310 307 310 316 315 311 309 310 305 309 312 310 308 307 307 305 305 306 310 313
317 317 317 317 316 316 316 315 315 314 314 314 313 313 312 310 310 317 315 318 317 315 301 303 305 307 308 309 305 312 315 314 311 307 308 309 312 310 307 306 308 303 309 308 307 306 302
317 317 317 316 316 316 315 315 314 314 314 313 313 312 310 309 313 315 315 319 316 313 292 304 304 311 309 306 307 307 313 310 307 309 308 305 308 307 306 307 309 306 310 308 306 305 305
317 317 317 316 316 315 315 314 314 314 313 313 312 311 310 317 317 319 319 318 313 298 291 299 304 303 303 304 305 308 308 311 312 307 308 308 313 310 309 311 311 311 308 308 307 304 297
317 317 316 316 315 315 314 314 314 313 313 312 310 309 308 315 314 319 319 313 298 292 304 298 300 302 301 302 302 303 303 303 301 298 299 303 305 311 311 306 310 309 305 297 296 296 295
316 317 316 315 315 314 314 314 313 313 312 311 308 306 313 317 320 319 315 306 294 301 300 303 301 300 298 301 301 301 300 299 303 302 298 297 296 304 311 308 305 306 305 298 293 294 297
317 317 316 315 314 314 314 314 313 312 311 310 307 318 316 320 319 317 309 299 299 301 303 300 301 298 299 300 299 300 300 300 303 303 297 296 296 306 309 311 310 306 303 308 302 303 299
316 316 315 314 314 314 314 314 313 312 311 309 311 316 317 320 319 314 305 299 302 304 303 303 297 300 297 299 298 299 299 303 301 303 304 299 294 302 306 310 310 307 310 301 303 295 295
315 315 314 315 314 314 314 314 313 312 310 309 313 312 317 320 318 310 302 302 303 305 304 301 300 299 299 298 300 298 299 302 303 302 304 301 297 297 302 302 304 305 304 305 305 303 296
315 315 313 314 314 314 314 314 313 311 309 313 316 307 317 319 307 309 302 303 297 303 305 303 302 300 299 300 298 298 297 300 303 302 297 301 297 293 297 304 307 307 305 305 300 300 303
315 314 314 314 314 314 315 314 312 311 310 310 312 310 317 316 302 302 303 301 303 302 301 301 300 301 301 298 295 297 298 302 302 300 298 300 296 291 293 298 302 300 302 304 304 305 302
314 314 313 314 314 315 315 314 312 311 311 311 312 305 310 310 309 304 301 300 299 302 301 301 300 300 298 297 299 295 296 299 301 300 303 300 295 293 290 295 298 297 299 302 302 300 301
314 313 314 314 315 315 315 314 313 312 311 313 311 304 307 301 302 303 303 301 298 297 301 302 299 298 296 294 295 294 297 297 299 301 300 298 291 294 295 297 297 297 298 299 298 302 300
313 313 313 314 315 315 315 315 314 312 310 314 308 307 308 305 305 303 298 299 297 297 299 296 296 296 297 294 296 293 295 296 295 299 298 299 292 294 292 296 296 295 298 299 299 301 304
313 314 313 314 315 315 315 315 315 312 311 313 315 313 309 300 303 301 299 299 297 299 299 300 298 297 297 298 300 301 301 300 299 297 295 295 294 292 288 294 294 290 296 298 299 301 302
313 313 313 313 314 315 315 316 315 313 312 316 315 314 308 301 302 299 299 299 297 299 298 299 300 298 302 306 305 304 303 301 300 299 299 294 293 293 287 290 283 295 302 302 299 301 302
313 312 312 313 314 315 315 315 315 314 313 316 317 314 309 302 303 301 300 299 300 301 299 299 301 303 306 302 297 295 296 297 297 299 298 299 294 291 286 285 290 294 300 300 299 299 307
312 312 312 313 314 315 315 316 315 315 314 317 317 319 313 306 302 304 301 301 299 299 300 300 305 307 305 299 295 290 288 290 289 292 299 299 299 292 289 284 282 294 300 304 302 295 306
312 311 312 312 313 314 315 315 316 316 315 315 317 321 315 306 308 306 301 300 303 301 300 302 302 301 305 296 293 292 289 292 286 286 289 292 290 289 290 287 290 299 301 304 289 294 306
312 311 312 312 313 314 314 315 315 316 315 314 316 320 314 309 309 309 307 305 304 303 299 303 301 301 298 293 293 292 291 292 288 290 289 289 288 288 290 287 284 302 301 294 301 304 305
311 311 312 312 312 313 314 314 315 315 315 314 316 320 319 312 311 314 313 312 309 308 306 305 301 299 300 296 296 297 293 294 291 286 295 288 290 286 289 291 299 301 300 302 305 304 305